Laatste waarneming: 23:11
Temperatuur:16,7°C
Dauwpunt:14,5°C
Rel. vocht:87,0%
Natte-bol:16,2°C
Wind (gem. 10 min.):2,1 m/s
Wind (max. 10 min.): m/s
Windrichting:86°
Neerslagsom:20,2 mm
Neerslagintensiteit:0,0 mm/u
Luchtdruk:1012,7 hPa
Straling:0,0 W/m2
 
Maximumtemp.:20,7°C (14:42)
Minimumtemp.:13,6°C (06:41)
Hoogste windstoot:- m/s (--:--)


Bekijk het Grafiekoverzicht.
Bekijk het Maandoverzicht.
Dagtabel
Tijd Temp. Dauwp. Natte-bol Rel. Hum. Windsnelh. Windricht. Windstoot Neerslag Straling Luchtdruk
 
23:11 16,7 14,5 16,2 87,0 2,1 86 - 20,2 0 1.012,7
23:10 16,7 14,5 16,2 87,0 2,0 85 - 20,2 0 1.012,7
23:09 16,7 14,5 16,2 87,0 1,9 85 - 20,2 0 1.012,7
23:08 16,7 14,5 16,2 87,0 1,9 85 - 20,2 0 1.012,7
23:07 16,7 14,5 16,2 87,0 1,8 85 - 20,2 0 1.012,6
23:06 16,8 14,6 16,3 87,0 1,7 84 - 20,2 0 1.012,7
23:05 16,8 14,6 16,3 87,0 1,5 84 - 20,2 0 1.012,7
23:04 16,8 14,6 16,3 87,0 1,4 84 - 20,2 0 1.012,7
23:03 16,8 14,6 16,3 87,0 1,4 84 - 20,2 0 1.012,7
23:02 16,8 14,5 16,2 86,3 1,5 84 - 20,2 0 1.012,7
23:01 16,8 14,4 16,1 86,0 1,6 84 - 20,2 0 1.012,7
23:00 16,8 14,4 16,1 86,0 1,7 83 - 20,2 0 1.012,7
 
22:59 16,8 14,4 16,1 86,0 1,8 83 - 20,2 0 1.012,7
22:58 16,8 14,4 16,1 86,0 1,9 83 - 20,2 0 1.012,7
22:57 16,8 14,4 16,1 86,0 1,9 83 - 20,2 0 1.012,7
22:56 16,8 14,4 16,1 86,0 1,8 82 - 20,2 0 1.012,6
22:55 16,8 14,4 16,1 86,0 1,8 82 - 20,2 0 1.012,6
22:54 16,8 14,4 16,1 86,0 1,8 82 - 20,2 0 1.012,6
22:53 16,8 14,4 16,1 86,0 1,8 82 - 20,2 0 1.012,6
22:52 16,8 14,4 16,1 86,0 1,8 82 - 20,2 0 1.012,6
22:51 16,8 14,3 16,1 85,4 1,7 81 - 20,2 0 1.012,7
22:50 16,8 14,3 16,0 85,0 1,7 81 - 20,2 0 1.012,7
22:49 16,8 14,3 16,0 85,0 1,7 81 - 20,2 0 1.012,7
22:48 16,8 14,3 16,0 85,0 1,7 81 - 20,2 0 1.012,7
22:47 16,8 14,3 16,0 85,0 1,7 81 - 20,2 0 1.012,7
22:46 16,9 14,4 16,1 85,0 1,7 81 - 20,2 0 1.012,7
22:45 16,9 14,4 16,1 85,0 1,7 81 - 20,2 0 1.012,7
22:44 16,9 14,4 16,1 85,0 1,7 81 - 20,2 0 1.012,7
22:43 16,9 14,4 16,1 85,0 1,8 81 - 20,2 0 1.012,7
22:42 16,9 14,4 16,1 85,0 1,8 81 - 20,2 0 1.012,7
22:41 16,9 14,4 16,1 85,0 1,9 80 - 20,2 0 1.012,7
22:40 16,9 14,4 16,1 85,0 2,0 80 - 20,2 0 1.012,7
22:39 16,9 14,4 16,1 85,0 2,0 80 - 20,2 0 1.012,7
22:38 16,9 14,4 16,1 85,0 2,0 80 - 20,2 0 1.012,7
22:37 17,0 14,5 16,2 85,0 2,0 80 - 20,2 0 1.012,7
22:36 17,0 14,5 16,2 85,0 1,9 81 - 20,2 0 1.012,7
22:35 17,0 14,4 16,2 84,6 1,8 81 - 20,2 0 1.012,7
22:34 17,0 14,3 16,1 84,0 1,7 82 - 20,2 0 1.012,7
22:33 17,0 14,3 16,1 84,0 1,7 82 - 20,2 0 1.012,8
22:32 17,0 14,3 16,1 84,0 1,6 82 - 20,2 0 1.012,8
22:31 17,0 14,3 16,1 84,0 1,6 83 - 20,2 0 1.012,8
22:30 17,0 14,3 16,1 84,0 1,6 83 - 20,2 0 1.012,8
22:29 17,0 14,3 16,1 84,0 1,6 84 - 20,2 0 1.012,8
22:28 17,0 14,3 16,1 84,0 1,6 84 - 20,2 0 1.012,8
22:27 17,0 14,3 16,1 84,0 1,7 84 - 20,2 0 1.012,7
22:26 17,0 14,3 16,1 84,0 1,8 85 - 20,2 0 1.012,7
22:25 17,0 14,3 16,1 84,0 2,0 85 - 20,2 0 1.012,7
22:24 17,1 14,4 16,2 84,0 2,1 85 - 20,2 0 1.012,8
22:23 17,1 14,4 16,2 84,0 2,2 85 - 20,2 0 1.012,8
22:22 17,1 14,4 16,2 84,0 2,3 86 - 20,2 0 1.012,7
22:21 17,1 14,4 16,2 84,0 2,3 86 - 20,2 0 1.012,7
22:20 17,1 14,2 16,1 83,2 2,3 86 - 20,2 0 1.012,7
22:19 17,1 14,2 16,1 83,0 2,3 86 - 20,2 0 1.012,7
22:18 17,1 14,2 16,1 83,0 2,3 87 - 20,2 0 1.012,7
22:17 17,1 14,2 16,1 83,0 2,3 87 - 20,2 0 1.012,7
22:16 17,1 14,2 16,1 83,0 2,3 87 - 20,2 0 1.012,7
22:15 17,1 14,2 16,1 83,0 2,4 87 - 20,2 0 1.012,7
22:14 17,1 14,2 16,1 83,0 2,4 87 - 20,2 0 1.012,7
22:13 17,1 14,2 16,1 83,0 2,4 87 - 20,2 0 1.012,7
22:12 17,1 14,2 16,1 83,0 2,5 87 - 20,2 0 1.012,7
22:11 17,1 14,2 16,1 83,0 2,5 87 - 20,2 0 1.012,7
22:10 17,0 14,1 16,0 83,0 2,4 87 - 20,2 0 1.012,8
22:09 17,0 14,1 16,0 83,0 2,4 87 - 20,2 0 1.012,8
22:08 17,0 14,1 16,0 83,0 2,3 87 - 20,2 0 1.012,8
22:07 17,0 14,1 16,0 83,2 2,1 87 - 20,2 0 1.012,8
22:06 17,0 14,2 16,0 83,7 2,0 87 - 20,2 0 1.012,8
22:05 17,0 14,2 16,0 83,5 2,0 88 - 20,2 0 1.012,8
22:04 17,0 14,3 16,1 84,0 1,9 88 - 20,2 0 1.012,8
22:03 17,0 14,3 16,1 84,0 1,9 88 - 20,2 0 1.012,8
22:02 17,0 14,3 16,1 84,0 1,8 88 - 20,2 0 1.012,8
22:01 17,0 14,2 16,1 83,8 1,8 88 - 20,2 0 1.012,8
22:00 17,0 14,2 16,0 83,4 1,8 88 - 20,2 0 1.012,8
 
21:59 17,0 14,3 16,1 84,0 1,9 88 - 20,2 0 1.012,8
21:58 17,0 14,3 16,1 84,0 1,9 88 - 20,2 0 1.012,8
21:57 17,0 14,3 16,1 84,0 1,9 88 - 20,2 0 1.012,8
21:56 16,9 14,2 16,0 84,0 1,9 88 - 20,2 0 1.012,7
21:55 16,9 14,2 16,0 84,0 2,0 88 - 20,2 0 1.012,7
21:54 16,9 14,2 16,0 84,0 2,0 88 - 20,2 0 1.012,7
21:53 16,9 14,2 16,0 84,0 1,9 89 - 20,2 0 1.012,7
21:52 16,9 14,2 16,0 84,0 1,9 89 - 20,2 0 1.012,7
21:51 17,0 14,3 16,1 84,0 1,8 90 - 20,2 0 1.012,7
21:50 17,0 14,3 16,1 84,0 1,8 90 - 20,2 0 1.012,7
21:49 17,0 14,3 16,1 84,0 1,7 91 - 20,2 0 1.012,7
21:48 17,0 14,3 16,1 84,0 1,6 91 - 20,2 0 1.012,7
21:47 17,0 14,3 16,1 84,0 1,6 92 - 20,2 0 1.012,8
21:46 17,1 14,4 16,2 84,0 1,5 92 - 20,2 0 1.012,8
21:45 17,1 14,4 16,2 84,0 1,4 92 - 20,2 0 1.012,8
21:44 17,1 14,4 16,2 84,0 1,4 93 - 20,2 0 1.012,7
21:43 17,1 14,4 16,2 84,0 1,4 93 - 20,2 0 1.012,7
21:42 17,1 14,4 16,2 84,0 1,5 93 - 20,2 0 1.012,7
21:41 17,1 14,4 16,2 84,0 1,6 93 - 20,2 0 1.012,7
21:40 17,1 14,4 16,2 84,0 1,7 94 - 20,2 0 1.012,7
21:39 17,1 14,4 16,2 84,0 1,8 94 - 20,2 0 1.012,7
21:38 17,1 14,4 16,2 83,9 1,9 94 - 20,2 0 1.012,7
21:37 17,1 14,2 16,1 83,0 1,9 94 - 20,2 0 1.012,7
21:36 17,1 14,3 16,1 83,5 2,0 94 - 20,2 0 1.012,7
21:35 17,1 14,4 16,2 84,0 2,0 94 - 20,2 0 1.012,7
21:34 17,1 14,4 16,2 84,0 2,0 95 - 20,2 0 1.012,7
21:33 17,1 14,4 16,2 84,0 2,0 95 - 20,2 0 1.012,6
21:32 17,2 14,5 16,3 84,0 2,0 95 - 20,2 0 1.012,6
21:31 17,2 14,5 16,3 84,0 2,0 95 - 20,2 0 1.012,6
21:30 17,2 14,5 16,3 84,0 2,0 95 - 20,2 0 1.012,7
21:29 17,2 14,5 16,3 84,0 2,1 95 - 20,2 0 1.012,7
21:28 17,2 14,5 16,3 84,0 2,1 94 - 20,2 0 1.012,6
21:27 17,2 14,5 16,3 84,0 2,1 94 - 20,2 0 1.012,7
21:26 17,2 14,5 16,3 84,0 2,1 94 - 20,2 0 1.012,6
21:25 17,2 14,5 16,3 84,0 2,1 94 - 20,2 0 1.012,7
21:24 17,2 14,5 16,3 84,0 2,2 94 - 20,2 4 1.012,7
21:23 17,2 14,5 16,3 84,0 2,3 93 - 20,2 5 1.012,6
21:22 17,2 14,5 16,3 84,0 2,4 93 - 20,2 5 1.012,6
21:21 17,2 14,5 16,3 84,0 2,6 93 - 20,2 5 1.012,6
21:20 17,2 14,5 16,3 84,0 2,7 92 - 20,2 5 1.012,6
21:19 17,2 14,5 16,3 84,0 2,7 92 - 20,2 5 1.012,6
21:18 17,2 14,5 16,3 84,0 2,7 91 - 20,2 5 1.012,6
21:17 17,2 14,5 16,3 84,0 2,7 90 - 20,2 7 1.012,6
21:16 17,2 14,5 16,3 84,0 2,6 90 - 20,2 7 1.012,6
21:15 17,3 14,6 16,4 84,0 2,5 89 - 20,2 7 1.012,6
21:14 17,3 14,6 16,4 84,0 2,5 88 - 20,2 7 1.012,6
21:13 17,3 14,6 16,4 84,0 2,4 88 - 20,2 7 1.012,6
21:12 17,3 14,6 16,4 84,0 2,4 87 - 20,2 7 1.012,6
21:11 17,3 14,6 16,4 84,0 2,3 87 - 20,2 9 1.012,6
21:10 17,3 14,6 16,4 84,0 2,3 86 - 20,2 9 1.012,6
21:09 17,3 14,6 16,4 84,0 2,3 86 - 20,2 9 1.012,6
21:08 17,3 14,6 16,4 84,0 2,3 86 - 20,2 10 1.012,6
21:07 17,3 14,6 16,4 84,0 2,3 86 - 20,2 11 1.012,6
21:06 17,3 14,6 16,4 84,0 2,3 86 - 20,2 11 1.012,6
21:05 17,4 14,7 16,5 84,0 2,3 86 - 20,2 11 1.012,6
21:04 17,4 14,7 16,5 84,0 2,3 86 - 20,2 11 1.012,6
21:03 17,4 14,7 16,5 84,0 2,3 86 - 20,2 11 1.012,6
21:02 17,4 14,6 16,5 83,7 2,3 86 - 20,2 12 1.012,6
21:01 17,4 14,5 16,4 83,0 2,3 86 - 20,2 12 1.012,6
21:00 17,4 14,5 16,4 83,0 2,3 86 - 20,2 12 1.012,6
 
20:59 17,4 14,5 16,4 83,0 2,3 86 - 20,2 12 1.012,6
20:58 17,4 14,5 16,4 83,0 2,3 85 - 20,2 12 1.012,6
20:57 17,4 14,5 16,4 83,0 2,3 85 - 20,2 13 1.012,6
20:56 17,4 14,5 16,4 83,0 2,3 85 - 20,2 14 1.012,6
20:55 17,4 14,5 16,4 83,0 2,2 84 - 20,2 14 1.012,6
20:54 17,5 14,6 16,5 83,0 2,1 84 - 20,2 14 1.012,6
20:53 17,5 14,6 16,5 83,0 2,0 84 - 20,2 16 1.012,6
20:52 17,5 14,6 16,5 83,0 1,8 83 - 20,2 16 1.012,6
20:51 17,6 14,7 16,6 83,0 1,7 83 - 20,2 16 1.012,6
20:50 17,6 14,7 16,6 83,0 1,6 83 - 20,2 16 1.012,5
20:49 17,6 14,7 16,6 83,0 1,5 82 - 20,2 18 1.012,6
20:48 17,6 14,7 16,6 83,0 1,5 82 - 20,2 18 1.012,6
20:47 17,7 14,8 16,7 83,0 1,5 81 - 20,2 18 1.012,6
20:46 17,7 14,8 16,7 83,0 1,4 81 - 20,2 19 1.012,5
20:45 17,7 14,8 16,7 83,0 1,4 81 - 20,2 20 1.012,5
20:44 17,7 14,8 16,7 83,0 1,4 81 - 20,2 21 1.012,6
20:43 17,7 14,8 16,7 83,0 1,4 82 - 20,2 23 1.012,6
20:42 17,7 14,8 16,7 83,0 1,4 83 - 20,2 25 1.012,6
20:41 17,7 14,8 16,7 83,0 1,5 83 - 20,2 25 1.012,6
20:40 17,7 14,8 16,7 83,0 1,6 84 - 20,2 26 1.012,5
20:39 17,7 14,8 16,7 83,0 1,6 85 - 20,2 27 1.012,6
20:38 17,7 14,8 16,7 83,0 1,7 86 - 20,2 28 1.012,6
20:37 17,8 14,9 16,8 83,0 1,8 87 - 20,2 30 1.012,6
20:36 17,8 14,9 16,8 83,0 1,8 88 - 20,2 30 1.012,6
20:35 17,8 14,9 16,8 83,0 1,8 88 - 20,2 31 1.012,6
20:34 17,8 14,9 16,8 83,0 1,8 88 - 20,2 33 1.012,5
20:33 17,8 14,9 16,8 83,0 1,9 89 - 20,2 33 1.012,6
20:32 17,8 14,9 16,8 83,0 1,9 89 - 20,2 33 1.012,6
20:31 17,9 15,0 16,9 83,0 1,9 89 - 20,2 33 1.012,5
20:30 17,9 15,0 16,9 83,0 1,9 88 - 20,2 35 1.012,5
20:29 17,9 15,0 16,9 83,0 1,9 88 - 20,2 35 1.012,5
20:28 17,9 15,0 16,9 83,0 1,9 88 - 20,2 35 1.012,5
20:27 17,9 15,0 16,9 83,3 1,9 87 - 20,2 36 1.012,5
20:26 18,0 15,3 17,1 84,0 1,9 87 - 20,2 39 1.012,5
20:25 18,0 15,2 17,0 83,5 1,9 86 - 20,2 37 1.012,5
20:24 18,0 15,1 17,0 83,0 1,9 85 - 20,2 39 1.012,5
20:23 18,1 15,2 17,1 83,0 1,9 85 - 20,2 38 1.012,6
20:22 18,1 15,2 17,1 83,0 1,9 84 - 20,2 39 1.012,6
20:21 18,1 15,2 17,1 83,0 1,9 83 - 20,2 41 1.012,6
20:20 18,2 15,3 17,2 83,0 1,8 83 - 20,2 40 1.012,6
20:19 18,2 15,3 17,2 83,0 1,8 82 - 20,2 39 1.012,6
20:18 18,2 15,3 17,2 83,0 1,7 81 - 20,2 40 1.012,6
20:17 18,3 15,2 17,2 82,2 1,8 80 - 20,2 42 1.012,5
20:16 18,3 15,2 17,1 82,0 1,8 79 - 20,2 42 1.012,6
20:15 18,4 15,3 17,2 82,0 1,9 77 - 20,2 42 1.012,6
20:14 18,5 15,4 17,3 82,0 2,0 76 - 20,2 44 1.012,6
20:13 18,6 15,5 17,4 82,0 2,1 75 - 20,2 46 1.012,6
20:12 18,6 15,5 17,4 82,0 2,1 74 - 20,2 47 1.012,6
20:11 18,7 15,4 17,4 81,1 2,1 73 - 20,2 49 1.012,6
20:10 18,7 15,4 17,4 81,0 2,1 73 - 20,2 49 1.012,6
20:09 18,8 15,5 17,5 81,0 2,2 72 - 20,2 49 1.012,6
20:08 18,8 15,5 17,5 81,0 2,2 71 - 20,2 51 1.012,6
20:07 18,8 15,5 17,5 81,0 2,3 71 - 20,2 53 1.012,5
20:06 18,8 15,5 17,5 81,0 2,4 70 - 20,2 58 1.012,5
20:05 18,8 15,5 17,5 81,0 2,4 69 - 20,2 73 1.012,5
20:04 18,8 15,5 17,5 81,2 2,4 68 - 20,2 101 1.012,6
20:03 18,9 15,8 17,8 82,0 2,4 67 - 20,2 117 1.012,6
20:02 18,8 15,6 17,6 81,5 2,3 67 - 20,2 121 1.012,6
20:01 18,8 15,5 17,5 81,0 2,3 66 - 20,2 124 1.012,6
20:00 18,8 15,5 17,5 81,0 2,2 66 - 20,2 127 1.012,6
 
19:59 18,8 15,5 17,5 81,0 2,1 66 - 20,2 129 1.012,6
19:58 18,8 15,5 17,5 81,2 2,1 65 - 20,2 134 1.012,6
19:57 18,8 15,7 17,7 82,0 2,1 65 - 20,2 135 1.012,6
19:56 18,8 15,7 17,7 82,0 2,1 66 - 20,2 137 1.012,6
19:55 18,8 15,7 17,7 82,0 2,1 66 - 20,2 137 1.012,6
19:54 18,8 15,7 17,7 82,0 2,0 66 - 20,2 140 1.012,6
19:53 18,9 15,9 17,9 82,9 2,0 66 - 20,2 145 1.012,6
19:52 18,9 15,8 17,8 82,0 2,0 66 - 20,2 150 1.012,6
19:51 18,9 15,8 17,8 82,0 2,0 66 - 20,2 152 1.012,6
19:50 19,0 15,8 17,8 81,5 2,0 65 - 20,2 155 1.012,6
19:49 19,0 15,7 17,7 81,0 2,1 65 - 20,2 158 1.012,6
19:48 19,1 15,9 17,9 81,8 2,2 66 - 20,2 161 1.012,6
19:47 19,0 15,7 17,7 81,1 2,3 66 - 20,2 163 1.012,6
19:46 19,0 15,7 17,7 81,0 2,3 66 - 20,2 165 1.012,6
19:45 19,0 15,7 17,8 81,4 2,4 66 - 20,2 167 1.012,6
19:44 18,9 15,7 17,7 81,5 2,4 66 - 20,2 165 1.012,6
19:43 18,9 15,6 17,6 81,0 2,4 66 - 20,2 166 1.012,6
19:42 18,8 15,5 17,5 81,0 2,4 66 - 20,2 172 1.012,6
19:41 18,9 15,6 17,6 81,0 2,4 65 - 20,2 176 1.012,6
19:40 18,9 15,5 17,6 80,7 2,4 65 - 20,2 180 1.012,6
19:39 19,0 15,5 17,6 80,0 2,4 64 - 20,2 183 1.012,6
19:38 19,1 15,7 17,8 80,6 2,4 64 - 20,2 185 1.012,6
19:37 19,3 16,0 18,0 81,0 2,4 64 - 20,2 189 1.012,6
19:36 19,3 16,0 18,0 81,0 2,4 63 - 20,2 192 1.012,6
19:35 19,3 15,9 18,0 80,9 2,4 63 - 20,2 193 1.012,6
19:34 19,3 15,8 17,9 80,0 2,4 63 - 20,2 196 1.012,6
19:33 19,4 15,9 18,0 80,0 2,5 62 - 20,2 201 1.012,6
19:32 19,4 15,9 18,0 80,0 2,6 62 - 20,2 204 1.012,6
19:31 19,4 15,9 18,0 80,0 2,6 62 - 20,2 209 1.012,5
19:30 19,4 15,9 18,0 80,0 2,6 61 - 20,2 212 1.012,5
19:29 19,5 15,8 17,9 79,2 2,6 61 - 20,2 210 1.012,6
19:28 19,5 15,9 18,0 79,7 2,5 61 - 20,2 209 1.012,6
19:27 19,5 15,8 17,9 79,0 2,4 61 - 20,2 213 1.012,6
19:26 19,6 15,9 18,0 79,0 2,2 60 - 20,2 218 1.012,6
19:25 19,6 15,7 17,9 78,3 2,1 60 - 20,2 216 1.012,6
19:24 19,6 15,7 17,9 78,0 2,0 60 - 20,2 212 1.012,6
19:23 19,6 15,7 17,9 78,0 1,9 60 - 20,2 218 1.012,5
19:22 19,7 15,8 18,0 78,0 1,8 60 - 20,2 225 1.012,6
19:21 19,8 16,0 18,1 78,5 1,7 60 - 20,2 230 1.012,6
19:20 19,8 15,9 18,1 78,4 1,6 60 - 20,2 236 1.012,6
19:19 19,9 16,0 18,2 78,0 1,5 60 - 20,2 238 1.012,6
19:18 19,8 15,9 18,1 78,0 1,5 60 - 20,2 242 1.012,6
19:17 19,9 15,7 18,0 77,0 1,4 59 - 20,2 246 1.012,6
19:16 19,9 15,8 18,1 77,4 1,3 59 - 20,2 250 1.012,6
19:15 19,9 16,0 18,2 78,0 1,3 58 - 20,2 251 1.012,6
19:14 19,9 16,0 18,2 78,0 1,3 58 - 20,2 255 1.012,6
19:13 19,9 15,8 18,0 77,2 1,3 57 - 20,2 257 1.012,6
19:12 19,9 16,0 18,2 78,0 1,3 56 - 20,2 261 1.012,6
19:11 19,9 16,0 18,2 78,0 1,3 55 - 20,2 267 1.012,6
19:10 19,9 16,0 18,2 78,4 1,3 54 - 20,2 273 1.012,6
19:09 19,9 16,1 18,3 79,0 1,3 53 - 20,2 272 1.012,6
19:08 19,9 16,1 18,3 79,0 1,3 51 - 20,2 272 1.012,6
19:07 19,9 16,1 18,3 79,0 1,2 50 - 20,2 277 1.012,6
19:06 19,8 16,1 18,2 79,0 1,2 48 - 20,2 284 1.012,6
19:05 19,8 16,1 18,2 79,0 1,2 46 - 20,2 290 1.012,6
19:04 19,7 16,0 18,1 79,0 1,2 45 - 20,2 292 1.012,6
19:03 19,7 16,0 18,1 79,0 1,2 43 - 20,2 295 1.012,7
19:02 19,7 16,0 18,1 79,0 1,3 41 - 20,2 297 1.012,7
19:01 19,7 16,0 18,1 79,0 1,3 40 - 20,2 297 1.012,7
19:00 19,7 16,2 18,3 80,0 1,3 39 - 20,2 299 1.012,7
 
18:59 19,6 16,1 18,2 80,0 1,4 38 - 20,2 304 1.012,7
18:58 19,6 16,1 18,2 80,0 1,3 37 - 20,2 308 1.012,7
18:57 19,6 16,2 18,3 80,6 1,3 36 - 20,2 313 1.012,7
18:56 19,6 16,1 18,2 80,3 1,3 36 - 20,2 317 1.012,7
18:55 19,6 16,2 18,3 80,9 1,2 37 - 20,2 321 1.012,7
18:54 19,6 16,2 18,3 81,0 1,1 37 - 20,2 325 1.012,7
18:53 19,6 16,2 18,3 81,0 1,0 38 - 20,2 226 1.012,7
18:52 19,6 16,3 18,4 81,5 0,9 38 - 20,2 172 1.012,7
18:51 19,6 16,4 18,5 82,0 0,9 39 - 20,2 199 1.012,7
18:50 19,5 16,3 18,4 82,0 0,9 39 - 20,2 280 1.012,7
18:49 19,4 16,2 18,3 82,0 0,9 40 - 20,2 335 1.012,7
18:48 19,3 16,0 18,0 81,0 0,9 41 - 20,2 350 1.012,7
18:47 19,3 16,0 18,0 81,0 1,0 42 - 20,2 360 1.012,7
18:46 19,4 16,2 18,3 81,9 1,0 44 - 20,2 369 1.012,7
18:45 19,4 16,4 18,4 83,0 1,0 47 - 20,2 382 1.012,7
18:44 19,4 16,6 18,5 83,8 1,0 51 - 20,2 328 1.012,7
18:43 19,4 16,8 18,7 85,0 0,9 55 - 20,2 135 1.012,7
18:42 19,4 16,8 18,7 85,2 0,8 58 - 20,2 291 1.012,7
18:41 19,3 16,9 18,8 86,0 0,7 62 - 20,2 418 1.012,7
18:40 19,1 16,7 18,5 86,0 0,6 65 - 20,2 424 1.012,7
18:39 19,0 16,5 18,3 85,3 0,6 68 - 20,2 429 1.012,7
18:38 18,8 16,2 18,1 85,0 0,7 70 - 20,2 433 1.012,7
18:37 18,8 16,4 18,2 85,9 0,8 72 - 20,2 438 1.012,7
18:36 18,7 16,3 18,1 86,0 0,9 74 - 20,2 445 1.012,7
18:35 18,6 16,2 18,0 86,0 1,1 75 - 20,2 454 1.012,7
18:34 18,5 16,1 17,9 86,0 1,2 77 - 20,2 467 1.012,7
18:33 18,5 16,1 17,9 86,0 1,2 78 - 20,2 482 1.012,7
18:32 18,5 16,3 18,0 86,8 1,3 80 - 20,2 498 1.012,8
18:31 18,4 16,4 18,1 88,0 1,3 81 - 20,2 515 1.012,8
18:30 18,3 16,3 18,0 88,0 1,3 82 - 20,2 529 1.012,8
18:29 18,2 16,2 17,9 88,0 1,3 83 - 20,2 538 1.012,8
18:28 18,1 16,1 17,8 88,0 1,3 83 - 20,2 541 1.012,8
18:27 18,1 16,1 17,8 88,0 1,3 83 - 20,2 386 1.012,8
18:26 18,0 16,0 17,7 88,0 1,2 82 - 20,2 364 1.012,8
18:25 18,0 16,0 17,7 88,1 1,1 81 - 20,2 293 1.012,9
18:24 18,0 16,2 17,8 89,0 1,0 80 - 20,2 243 1.012,9
18:23 17,9 16,1 17,8 89,4 0,9 79 - 20,2 238 1.012,8
18:22 17,8 16,1 17,7 90,0 0,8 78 - 20,2 237 1.012,8
18:21 17,6 15,9 17,5 90,0 0,7 77 - 20,2 237 1.012,8
18:20 17,4 15,7 17,3 90,0 0,8 76 - 20,2 242 1.012,8
18:19 17,2 15,5 17,1 90,0 0,9 77 - 20,2 245 1.012,8
18:18 17,1 15,4 17,0 90,0 1,1 77 - 20,2 262 1.012,8
18:17 17,0 15,3 16,9 90,0 1,3 78 - 20,2 259 1.012,8
18:16 17,0 15,3 16,9 90,0 1,4 79 - 20,2 213 1.012,8
18:15 16,9 15,2 16,8 90,0 1,5 80 - 20,2 189 1.012,8
18:14 16,9 15,2 16,8 90,0 1,6 81 - 20,2 176 1.012,8
18:13 16,9 15,2 16,8 90,0 1,7 83 - 20,2 166 1.012,8
18:12 16,9 15,2 16,8 90,0 1,7 84 - 20,2 159 1.012,9
18:11 16,9 15,2 16,8 90,0 1,8 85 - 20,2 156 1.012,9
18:10 16,9 15,2 16,8 90,0 1,9 86 - 20,2 155 1.012,9
18:09 16,9 15,2 16,8 90,0 2,0 86 - 20,2 153 1.012,9
18:08 16,9 15,2 16,8 90,0 2,1 87 - 20,2 154 1.012,9
18:07 16,9 15,2 16,8 90,0 2,1 88 - 20,2 156 1.012,9
18:06 16,9 15,2 16,8 90,0 2,2 89 - 20,2 161 1.012,9
18:05 16,8 15,1 16,7 90,0 2,2 90 - 20,2 169 1.012,9
18:04 16,8 15,1 16,7 90,0 2,2 91 - 20,2 167 1.012,9
18:03 16,8 15,3 16,8 90,8 2,3 92 - 20,2 161 1.012,9
18:02 16,8 15,3 16,8 91,0 2,3 93 - 20,2 156 1.012,9
18:01 16,8 15,3 16,8 91,0 2,3 94 - 20,2 151 1.012,9
18:00 16,8 15,3 16,8 91,0 2,3 94 - 20,2 147 1.012,9
 
17:59 16,9 15,4 16,9 91,0 2,1 95 - 20,2 144 1.012,9
17:58 16,8 15,3 16,8 91,0 2,0 95 - 20,2 141 1.012,9
17:57 16,8 15,3 16,8 91,0 1,9 95 - 20,2 139 1.012,9
17:56 16,7 15,2 16,7 91,0 1,8 95 - 20,2 137 1.012,9
17:55 16,7 15,2 16,7 91,0 1,7 95 - 20,2 137 1.012,9
17:54 16,6 15,1 16,6 91,0 1,7 95 - 20,2 138 1.012,9
17:53 16,6 15,1 16,6 91,0 1,8 95 - 20,2 141 1.012,9
17:52 16,6 15,1 16,6 91,0 1,8 95 - 20,2 144 1.012,9
17:51 16,6 15,1 16,6 91,0 1,8 95 - 20,2 147 1.012,9
17:50 16,6 15,1 16,6 91,0 1,8 95 - 20,2 150 1.012,9
17:49 16,5 15,0 16,5 91,0 1,7 96 - 20,2 153 1.013,0
17:48 16,5 15,0 16,5 91,0 1,8 96 - 20,2 156 1.013,0
17:47 16,5 15,0 16,5 91,0 1,8 97 - 20,2 156 1.013,0
17:46 16,4 14,9 16,4 91,0 1,9 97 - 20,2 156 1.013,0
17:45 16,4 14,9 16,4 91,0 1,9 98 - 20,2 156 1.013,0
17:44 16,5 15,2 16,1 92,0 1,9 98 - 20,2 156 1.013,1
17:43 16,5 15,2 16,1 92,0 1,9 98 - 20,2 157 1.013,1
17:42 16,6 15,3 16,2 92,0 1,8 98 - 20,2 158 1.013,1
17:41 16,6 15,3 16,2 92,0 1,7 98 - 20,2 160 1.013,1
17:40 16,6 15,3 16,2 92,0 1,6 99 - 20,2 162 1.013,1
17:39 16,6 15,3 16,2 92,0 1,6 99 - 20,2 164 1.013,1
17:38 16,6 15,3 16,2 92,0 1,6 100 - 20,2 164 1.013,1
17:37 16,6 15,3 16,2 92,0 1,6 100 - 20,2 163 1.013,2
17:36 16,6 15,3 16,2 92,0 1,6 100 - 20,2 162 1.013,2
17:35 16,6 15,3 16,2 92,0 1,7 101 - 20,2 162 1.013,2
17:34 16,6 15,3 16,2 92,0 1,8 101 - 20,2 160 1.013,2
17:33 16,6 15,3 16,2 92,0 2,0 101 - 20,2 160 1.013,3
17:32 16,6 15,3 16,2 92,0 2,1 101 - 20,2 160 1.013,3
17:31 16,6 15,3 16,2 92,0 2,3 101 - 20,2 160 1.013,3
17:30 16,6 15,3 16,2 92,0 2,4 101 - 20,2 160 1.013,3
17:29 16,6 15,3 16,2 92,0 2,5 101 - 20,2 160 1.013,3
17:28 16,6 15,3 16,2 92,0 2,5 101 - 20,2 160 1.013,3
17:27 16,6 15,3 16,2 92,0 2,4 100 - 20,2 158 1.013,4
17:26 16,5 15,2 16,1 92,0 2,3 100 - 20,2 158 1.013,4
17:25 16,5 15,2 16,1 92,0 2,3 100 - 20,2 157 1.013,4
17:24 16,4 15,1 16,0 92,0 2,3 100 - 20,2 156 1.013,4
17:23 16,4 15,1 16,0 92,0 2,4 99 - 20,2 156 1.013,4
17:22 16,3 14,9 16,3 91,3 2,5 99 - 20,2 155 1.013,5
17:21 16,3 15,0 15,9 91,9 2,7 99 - 20,2 154 1.013,5
17:20 16,4 15,1 16,0 92,0 2,9 99 - 20,2 152 1.013,5
17:19 16,4 15,1 16,0 92,0 3,1 99 - 20,2 150 1.013,5
17:18 16,4 15,1 16,0 92,0 3,3 99 - 20,2 147 1.013,5
17:17 16,4 15,1 16,0 92,0 3,5 99 - 20,2 144 1.013,5
17:16 16,4 15,0 16,4 91,2 3,6 98 - 20,2 141 1.013,5
17:15 16,4 14,9 16,4 91,0 3,7 98 - 20,2 138 1.013,6
17:14 16,5 15,0 16,5 91,0 3,7 98 - 20,2 135 1.013,6
17:13 16,5 15,0 16,5 91,0 3,7 98 - 20,2 131 1.013,6
17:12 16,5 15,0 16,5 91,0 3,6 98 - 20,2 128 1.013,6
17:11 16,5 15,0 16,5 91,0 3,5 98 - 20,2 121 1.013,6
17:10 16,6 15,1 16,6 91,0 3,5 99 - 20,2 116 1.013,6
17:09 16,6 15,1 16,6 91,0 3,4 99 - 20,2 109 1.013,7
17:08 16,6 15,1 16,6 91,0 3,4 99 - 20,2 104 1.013,7
17:07 16,7 15,2 16,7 91,0 3,4 100 - 20,0 99 1.013,7
17:06 16,7 15,2 16,7 91,0 3,3 101 - 20,0 96 1.013,7
17:05 16,7 15,2 16,7 91,0 3,1 101 - 20,0 91 1.013,7
17:04 16,7 15,2 16,7 91,0 2,8 102 - 20,0 89 1.013,7
17:03 16,7 15,2 16,7 91,0 2,6 103 - 20,0 85 1.013,7
17:02 16,6 15,1 16,6 90,8 2,3 103 - 20,0 83 1.013,7
17:01 16,6 15,0 16,5 90,0 1,9 104 - 20,0 82 1.013,8
17:00 16,6 15,0 16,5 90,0 1,7 104 - 20,0 79 1.013,8
 
16:59 16,5 14,9 16,3 90,0 1,7 105 - 19,8 79 1.013,8
16:58 16,5 14,9 16,3 90,0 1,8 105 - 19,8 79 1.013,8
16:57 16,5 14,9 16,3 90,0 1,8 105 - 19,8 78 1.013,8
16:56 16,5 14,8 16,3 89,7 1,9 105 - 19,8 77 1.013,8
16:55 16,4 14,6 16,1 89,0 2,1 105 - 19,8 76 1.013,8
16:54 16,4 14,6 16,1 89,0 2,2 105 - 19,8 74 1.013,8
16:53 16,4 14,5 16,0 88,3 2,1 105 - 19,6 72 1.013,8
16:52 16,4 14,4 16,0 88,0 1,9 105 - 19,4 70 1.013,8
16:51 16,4 14,4 16,0 87,8 1,8 105 - 19,2 70 1.013,7
16:50 16,5 14,3 16,0 87,0 1,6 105 - 19,0 68 1.013,7
16:49 16,5 14,3 16,0 87,0 1,4 104 - 18,8 67 1.013,7
16:48 16,6 14,4 16,1 87,0 1,2 104 - 18,6 65 1.013,7
16:47 16,7 14,4 16,1 86,3 1,0 102 - 18,2 65 1.013,7
16:46 16,7 14,3 16,0 86,0 0,7 100 - 17,8 63 1.013,7
16:45 16,8 14,4 16,1 85,9 0,5 98 - 17,4 63 1.013,7
16:44 16,8 14,3 16,0 85,0 0,4 96 - 17,0 61 1.013,8
16:43 16,9 14,3 16,1 84,6 0,3 93 - 16,6 58 1.013,7
16:42 17,0 14,3 16,1 84,0 0,3 91 - 16,2 54 1.013,8
16:41 17,2 14,5 16,3 84,0 0,3 90 - 15,4 53 1.013,8
16:40 17,3 14,6 16,4 84,0 0,4 89 - 14,4 49 1.013,8
16:39 17,5 14,7 16,6 83,8 0,6 89 - 13,6 44 1.013,9
16:38 17,6 14,6 16,5 82,7 1,0 89 - 12,6 41 1.013,9
16:37 17,8 14,7 16,6 82,0 1,4 89 - 11,2 39 1.013,9
16:36 18,0 14,8 16,8 81,4 2,0 89 - 10,2 37 1.013,8
16:35 18,3 14,8 16,9 80,2 2,7 90 - 9,0 35 1.013,8
16:34 18,7 15,0 17,1 79,1 3,2 90 - 8,2 33 1.013,8
16:33 19,2 15,5 17,6 79,0 3,3 89 - 6,6 33 1.013,8
16:32 19,6 15,9 18,0 79,0 3,2 88 - 5,6 32 1.013,8
16:31 19,8 15,9 18,1 78,0 2,9 87 - 4,8 32 1.013,9
16:30 20,0 15,8 18,1 77,0 2,6 85 - 4,0 32 1.013,8
16:29 20,2 15,9 18,2 76,1 2,0 82 - 2,8 33 1.013,7
16:28 20,3 15,7 18,1 75,0 1,3 78 - 2,0 34 1.013,7
16:27 20,3 15,5 17,9 73,8 0,9 73 - 0,4 35 1.013,6
16:26 20,3 15,3 17,8 73,0 0,8 66 - 0,0 37 1.013,5
16:25 20,2 15,1 17,6 72,5 0,7 59 - 0,0 40 1.013,4
16:24 20,2 15,0 17,5 72,0 0,6 49 - 0,0 43 1.013,4
16:23 20,2 15,2 17,7 72,8 0,7 38 - 0,0 47 1.013,3
16:22 20,2 15,2 17,7 73,0 1,0 27 - 0,0 51 1.013,3
16:21 20,2 15,2 17,7 72,8 1,4 18 - 0,0 56 1.013,3
16:20 20,2 15,0 17,5 72,0 1,7 10 - 0,0 63 1.013,3
16:19 20,2 15,0 17,5 72,0 2,1 4 - 0,0 75 1.013,3
16:18 20,3 15,2 17,7 72,7 2,3 1 - 0,0 88 1.013,3
16:17 20,3 15,3 17,8 73,0 2,5 359 - 0,0 101 1.013,2
16:16 20,3 15,3 17,8 73,0 2,6 357 - 0,0 115 1.013,2
16:15 20,3 15,3 17,8 73,0 2,6 356 - 0,0 127 1.013,2
16:14 20,3 15,3 17,8 73,0 2,6 355 - 0,0 141 1.013,2
16:13 20,3 15,2 17,7 72,5 2,6 354 - 0,0 156 1.013,2
16:12 20,3 15,1 17,6 72,0 2,7 353 - 0,0 170 1.013,2
16:11 20,3 15,1 17,6 72,0 2,8 352 - 0,0 177 1.013,2
16:10 20,3 15,1 17,6 72,0 2,8 351 - 0,0 179 1.013,3
16:09 20,3 15,1 17,6 72,0 2,8 351 - 0,0 180 1.013,2
16:08 20,3 15,1 17,6 72,0 2,9 351 - 0,0 181 1.013,2
16:07 20,3 15,0 17,5 71,4 2,9 351 - 0,0 179 1.013,2
16:06 20,4 15,1 17,7 71,8 3,0 351 - 0,0 174 1.013,2
16:05 20,4 15,2 17,7 72,0 3,1 352 - 0,0 165 1.013,2
16:04 20,4 15,2 17,7 72,0 3,1 351 - 0,0 159 1.013,2
16:03 20,4 15,1 17,7 71,7 3,3 351 - 0,0 154 1.013,2
16:02 20,4 15,0 17,6 71,0 3,3 350 - 0,0 155 1.013,2
16:01 20,5 15,2 17,8 71,6 3,2 350 - 0,0 156 1.013,2
16:00 20,5 15,1 17,7 71,3 3,0 349 - 0,0 161 1.013,2
 
15:59 20,5 15,1 17,7 71,2 2,9 347 - 0,0 165 1.013,3
15:58 20,5 15,3 17,8 72,0 2,7 346 - 0,0 169 1.013,3
15:57 20,5 15,3 17,8 72,0 2,6 345 - 0,0 176 1.013,3
15:56 20,5 15,3 17,8 72,0 2,6 344 - 0,0 183 1.013,3
15:55 20,5 15,1 17,7 71,4 2,7 343 - 0,0 193 1.013,3
15:54 20,5 15,1 17,7 71,0 2,8 342 - 0,0 216 1.013,4
15:53 20,5 15,3 17,8 72,0 3,0 342 - 0,0 278 1.013,4
15:52 20,6 15,4 17,9 72,0 3,2 341 - 0,0 339 1.013,4
15:51 20,6 15,5 18,0 72,4 3,3 341 - 0,0 339 1.013,4
15:50 20,6 15,6 18,1 73,0 3,4 341 - 0,0 339 1.013,4
15:49 20,6 15,5 18,0 72,4 3,4 340 - 0,0 342 1.013,4
15:48 20,6 15,5 18,0 72,8 3,4 340 - 0,0 355 1.013,3
15:47 20,5 15,5 18,0 73,0 3,3 340 - 0,0 367 1.013,3
15:46 20,5 15,5 18,0 73,0 3,2 340 - 0,0 353 1.013,3
15:45 20,4 15,5 17,9 73,4 3,1 340 - 0,0 353 1.013,3
15:44 20,3 15,5 17,9 74,0 3,1 341 - 0,0 353 1.013,3
15:43 20,3 15,4 17,8 73,3 3,0 342 - 0,0 369 1.013,3
15:42 20,2 15,2 17,7 73,0 2,9 343 - 0,0 320 1.013,3
15:41 20,2 15,3 17,8 73,4 2,8 344 - 0,0 309 1.013,3
15:40 20,2 15,4 17,8 74,0 2,8 345 - 0,0 301 1.013,3
15:39 20,2 15,3 17,8 73,6 2,7 346 - 0,0 289 1.013,2
15:38 20,2 15,2 17,7 73,0 2,7 347 - 0,0 277 1.013,3
15:37 20,2 15,2 17,7 73,0 2,6 348 - 0,0 263 1.013,3
15:36 20,2 15,2 17,7 73,0 2,6 348 - 0,0 258 1.013,3
15:35 20,2 15,2 17,7 73,0 2,6 348 - 0,0 259 1.013,3
15:34 20,2 15,2 17,7 73,0 2,6 347 - 0,0 260 1.013,3
15:33 20,2 15,3 17,8 73,5 2,5 347 - 0,0 260 1.013,3
15:32 20,2 15,4 17,8 74,0 2,6 346 - 0,0 257 1.013,3
15:31 20,1 15,5 17,9 74,7 2,7 346 - 0,0 248 1.013,3
15:30 20,1 15,4 17,8 74,2 2,8 346 - 0,0 237 1.013,3
15:29 20,2 15,4 17,8 74,0 3,0 345 - 0,0 225 1.013,3
15:28 20,2 15,4 17,8 73,7 3,2 345 - 0,0 219 1.013,4
15:27 20,3 15,3 17,8 73,0 3,5 345 - 0,0 215 1.013,4
15:26 20,4 15,4 17,9 73,0 3,7 345 - 0,0 214 1.013,4
15:25 20,4 15,2 17,8 72,3 3,7 345 - 0,0 210 1.013,4
15:24 20,5 15,3 17,8 72,0 3,5 345 - 0,0 209 1.013,4
15:23 20,5 15,1 17,7 71,0 3,2 346 - 0,0 206 1.013,4
15:22 20,6 15,2 17,8 71,4 2,9 347 - 0,0 205 1.013,4
15:21 20,6 15,4 17,9 72,0 2,5 348 - 0,0 210 1.013,4
15:20 20,6 15,2 17,8 71,4 2,1 350 - 0,0 214 1.013,4
15:19 20,6 15,2 17,8 71,0 1,9 353 - 0,0 226 1.013,4
15:18 20,6 15,0 17,6 70,2 1,8 356 - 0,0 240 1.013,4
15:17 20,6 15,2 17,8 71,0 1,8 0 - 0,0 520 1.013,4
15:16 20,6 15,2 17,8 71,4 1,9 4 - 0,0 742 1.013,5
15:15 20,5 15,3 17,8 72,0 1,9 8 - 0,0 742 1.013,4
15:14 20,4 15,3 17,8 72,7 1,9 13 - 0,0 742 1.013,4
15:13 20,3 15,1 17,7 72,2 2,0 16 - 0,0 759 1.013,4
15:12 20,1 15,1 17,6 73,0 2,0 19 - 0,0 837 1.013,5
15:11 20,1 15,3 17,7 74,0 2,0 22 - 0,0 684 1.013,5
15:10 20,0 15,2 17,7 74,0 2,0 24 - 0,0 524 1.013,5
15:09 19,9 15,0 17,5 73,5 2,1 26 - 0,0 448 1.013,5
15:08 19,9 14,9 17,4 73,0 2,1 27 - 0,0 359 1.013,5
15:07 19,9 14,9 17,4 73,0 2,0 28 - 0,0 322 1.013,5
15:06 19,9 15,1 17,5 73,9 2,1 29 - 0,0 296 1.013,5
15:05 19,9 14,9 17,4 73,0 2,2 29 - 0,0 269 1.013,5
15:04 19,9 14,9 17,4 73,0 2,3 29 - 0,0 247 1.013,5
15:03 19,9 14,9 17,4 73,0 2,4 29 - 0,0 226 1.013,5
15:02 20,0 15,0 17,5 73,0 2,3 28 - 0,0 200 1.013,5
15:01 20,0 15,2 17,7 74,0 2,2 26 - 0,0 178 1.013,6
15:00 20,0 15,0 17,5 73,1 2,1 24 - 0,0 162 1.013,6
 
14:59 20,0 15,0 17,5 73,0 2,1 22 - 0,0 150 1.013,6
14:58 20,1 15,1 17,6 73,0 2,1 20 - 0,0 138 1.013,6
14:57 20,1 15,1 17,6 73,0 2,1 19 - 0,0 128 1.013,6
14:56 20,1 15,1 17,6 73,0 2,1 17 - 0,0 120 1.013,6
14:55 20,2 15,2 17,7 73,0 2,2 16 - 0,0 115 1.013,6
14:54 20,2 15,2 17,7 73,0 2,3 16 - 0,0 114 1.013,6
14:53 20,3 15,2 17,7 72,7 2,4 16 - 0,0 112 1.013,6
14:52 20,3 15,1 17,6 72,0 2,5 16 - 0,0 111 1.013,6
14:51 20,3 15,0 17,5 71,5 2,7 16 - 0,0 113 1.013,5
14:50 20,3 14,9 17,5 71,0 2,8 16 - 0,0 119 1.013,5
14:49 20,4 15,0 17,6 71,0 2,8 16 - 0,0 123 1.013,5
14:48 20,4 14,9 17,5 70,9 2,8 16 - 0,0 132 1.013,5
14:47 20,4 14,7 17,4 70,0 2,7 16 - 0,0 144 1.013,5
14:46 20,5 14,8 17,5 70,0 2,6 16 - 0,0 159 1.013,5
14:45 20,5 14,8 17,5 70,0 2,4 16 - 0,0 177 1.013,5
14:44 20,6 14,8 17,5 69,3 2,4 16 - 0,0 196 1.013,5
14:43 20,6 14,9 17,6 69,9 2,3 16 - 0,0 215 1.013,5
14:42 20,7 15,1 17,7 70,2 2,3 17 - 0,0 231 1.013,5
14:41 20,6 15,2 17,8 71,0 2,2 17 - 0,0 243 1.013,5
14:40 20,6 15,0 17,7 70,4 2,2 17 - 0,0 248 1.013,5
14:39 20,5 15,0 17,6 70,6 2,2 17 - 0,0 850 1.013,5
14:38 20,4 15,1 17,7 71,8 2,2 17 - 0,0 882 1.013,5
14:37 20,3 15,3 17,8 72,9 2,3 17 - 0,0 885 1.013,5
14:36 20,2 15,2 17,7 73,0 2,4 17 - 0,0 562 1.013,5
14:35 20,0 14,9 17,4 72,7 2,4 17 - 0,0 294 1.013,5
14:34 19,9 14,8 17,3 72,5 2,4 17 - 0,0 294 1.013,5
14:33 19,8 14,8 17,3 73,0 2,5 16 - 0,0 290 1.013,5
14:32 19,8 14,6 17,2 72,2 2,5 16 - 0,0 254 1.013,5
14:31 19,8 14,8 17,3 73,0 2,6 15 - 0,0 244 1.013,5
14:30 19,8 14,8 17,3 73,0 2,6 15 - 0,0 239 1.013,6
14:29 19,8 14,8 17,3 73,0 2,5 14 - 0,0 226 1.013,6
14:28 19,8 14,8 17,3 73,0 2,4 14 - 0,0 215 1.013,6
14:27 19,8 14,8 17,3 73,0 2,4 14 - 0,0 209 1.013,5
14:26 19,8 15,0 17,4 73,8 2,5 14 - 0,0 206 1.013,5
14:25 19,8 15,1 17,5 74,1 2,5 15 - 0,0 201 1.013,5
14:24 19,8 15,2 17,6 75,0 2,5 15 - 0,0 204 1.013,5
14:23 19,8 15,2 17,6 75,0 2,5 16 - 0,0 206 1.013,5
14:22 19,8 15,4 17,7 75,6 2,5 16 - 0,0 210 1.013,5
14:21 19,8 15,4 17,8 76,0 2,4 17 - 0,0 215 1.013,5
14:20 19,8 15,3 17,6 75,2 2,4 17 - 0,0 223 1.013,5
14:19 19,8 15,2 17,6 75,0 2,4 17 - 0,0 230 1.013,5
14:18 19,8 15,2 17,6 75,0 2,3 16 - 0,0 229 1.013,6
14:17 19,8 15,2 17,6 75,0 2,3 15 - 0,0 226 1.013,6
14:16 19,8 15,2 17,6 75,0 2,4 14 - 0,0 205 1.013,6
14:15 19,8 15,2 17,6 75,0 2,4 12 - 0,0 176 1.013,6
14:14 19,8 15,2 17,6 75,0 2,4 10 - 0,0 159 1.013,6
14:13 19,8 15,2 17,6 75,0 2,4 9 - 0,0 149 1.013,6
14:12 19,8 15,2 17,6 75,0 2,4 7 - 0,0 139 1.013,6
14:10 19,8 15,2 17,6 75,0 2,5 6 - 0,0 125 1.013,6
14:09 19,9 15,3 17,7 75,0 2,6 5 - 0,0 115 1.013,6
14:08 19,9 15,3 17,7 75,0 2,8 5 - 0,0 110 1.013,6
14:07 20,0 15,4 17,8 75,0 2,9 3 - 0,0 113 1.013,5
14:06 20,0 15,4 17,8 75,0 3,1 2 - 0,0 116 1.013,6
14:05 20,0 15,4 17,8 75,0 3,3 0 - 0,0 121 1.013,5
14:04 20,1 15,5 17,9 75,0 3,4 359 - 0,0 128 1.013,6
14:03 20,1 15,5 17,9 75,0 3,2 357 - 0,0 138 1.013,6
14:02 20,1 15,5 17,9 75,0 3,1 355 - 0,0 148 1.013,6
14:01 20,1 15,3 17,7 74,0 3,1 354 - 0,0 152 1.013,6
14:00 20,1 15,3 17,7 74,0 3,1 352 - 0,0 163 1.013,6
 
13:59 20,2 15,5 17,9 74,5 3,1 351 - 0,0 191 1.013,7
13:58 20,2 15,8 18,1 75,6 3,0 351 - 0,0 356 1.013,7
13:57 20,2 15,8 18,2 76,0 3,1 351 - 0,0 364 1.013,6
13:56 20,3 15,7 18,1 75,1 3,1 352 - 0,0 364 1.013,6
13:55 20,3 15,7 18,1 75,0 3,1 354 - 0,0 364 1.013,7
13:54 20,3 15,8 18,2 75,4 3,2 356 - 0,0 321 1.013,7
13:53 20,3 15,8 18,2 75,5 3,2 0 - 0,0 765 1.013,6
13:52 20,3 15,9 18,2 75,7 3,1 5 - 0,0 855 1.013,7
13:51 20,2 15,8 18,2 76,0 3,0 12 - 0,0 926 1.013,7
13:50 20,1 15,9 18,2 77,0 2,8 20 - 0,0 926 1.013,7
13:49 20,0 15,9 18,1 77,2 2,4 30 - 0,0 918 1.013,6
13:48 19,9 16,0 18,2 78,0 1,8 43 - 0,0 900 1.013,6
13:47 19,8 15,9 18,1 78,0 1,6 56 - 0,0 895 1.013,7
13:46 19,7 15,8 18,0 78,0 2,0 68 - 0,0 896 1.013,7
13:45 19,6 15,7 17,9 78,0 2,7 79 - 0,0 893 1.013,7
13:44 19,5 15,6 17,8 78,1 3,4 88 - 0,0 868 1.013,7
13:43 19,4 15,6 17,8 78,8 3,9 94 - 0,0 845 1.013,7
13:42 19,3 15,4 17,6 78,0 3,9 99 - 0,0 842 1.013,8
13:41 19,2 15,3 17,5 78,0 3,8 102 - 0,0 809 1.013,8
13:40 19,2 15,3 17,5 78,0 3,8 105 - 0,0 273 1.013,7
13:39 19,3 15,2 17,5 77,2 3,8 107 - 0,0 224 1.013,7
13:38 19,3 15,2 17,4 77,0 3,8 109 - 0,0 171 1.013,7
13:37 19,3 15,2 17,4 77,0 3,9 110 - 0,0 153 1.013,8
13:36 19,4 15,3 17,5 77,0 3,9 111 - 0,0 149 1.013,7
13:35 19,4 15,3 17,5 77,0 3,8 112 - 0,0 148 1.013,7
13:34 19,4 15,3 17,5 77,0 3,8 112 - 0,0 139 1.013,7
13:33 19,4 15,3 17,5 77,0 3,7 112 - 0,0 138 1.013,8
13:32 19,5 15,4 17,6 77,0 3,6 112 - 0,0 141 1.013,8
13:31 19,5 15,4 17,6 77,0 3,4 112 - 0,0 149 1.013,8
13:30 19,5 15,4 17,6 77,0 3,3 112 - 0,0 167 1.013,7
13:29 19,5 15,4 17,6 77,0 3,1 112 - 0,0 178 1.013,7
13:28 19,5 15,4 17,6 77,0 3,0 112 - 0,0 193 1.013,8
13:27 19,5 15,4 17,6 77,0 3,0 112 - 0,0 199 1.013,8
13:26 19,5 15,4 17,6 77,0 2,9 112 - 0,0 200 1.013,7
13:25 19,6 15,5 17,7 77,0 3,0 112 - 0,0 207 1.013,8
13:24 19,6 15,5 17,7 77,0 3,1 112 - 0,0 213 1.013,8
13:23 19,6 15,5 17,7 77,0 3,1 112 - 0,0 231 1.013,8
13:22 19,6 15,5 17,7 77,0 3,1 112 - 0,0 245 1.013,8
13:21 19,6 15,6 17,9 77,9 3,0 112 - 0,0 251 1.013,8
13:20 19,6 15,6 17,8 77,8 2,9 112 - 0,0 571 1.013,8
13:19 19,5 15,4 17,7 77,3 2,8 112 - 0,0 872 1.013,9
13:18 19,4 15,4 17,6 77,6 2,7 112 - 0,0 855 1.013,9
13:17 19,4 15,3 17,5 77,0 2,7 113 - 0,0 771 1.013,9
13:16 19,4 15,3 17,5 77,0 2,8 113 - 0,0 232 1.013,9
13:15 19,4 15,3 17,5 77,0 2,8 113 - 0,0 232 1.013,9
13:14 19,4 15,3 17,5 77,2 2,9 113 - 0,0 233 1.013,9
13:13 19,4 15,5 17,7 78,0 2,9 113 - 0,0 212 1.013,8
13:12 19,3 15,4 17,6 78,0 2,9 113 - 0,0 188 1.013,8
13:11 19,3 15,5 17,7 78,7 3,0 113 - 0,0 165 1.013,9
13:10 19,3 15,6 17,7 79,0 3,0 113 - 0,0 156 1.013,8
13:09 19,3 15,6 17,7 79,0 3,1 114 - 0,0 156 1.013,9
13:08 19,3 15,6 17,7 79,0 3,3 114 - 0,0 163 1.013,9
13:07 19,3 15,6 17,7 79,0 3,5 114 - 0,0 177 1.013,8
13:06 19,3 15,6 17,7 79,0 3,7 114 - 0,0 196 1.013,8
13:05 19,3 15,6 17,7 79,0 3,7 114 - 0,0 840 1.013,9
13:04 19,3 15,6 17,7 79,0 3,7 115 - 0,0 679 1.013,9
13:03 19,3 15,6 17,7 79,0 3,7 115 - 0,0 225 1.013,9
13:02 19,2 15,4 17,6 78,8 3,5 115 - 0,0 225 1.013,9
13:01 19,1 15,3 17,4 78,4 3,4 115 - 0,0 225 1.013,8
13:00 19,0 15,4 17,5 79,6 3,3 116 - 0,0 223 1.013,9
 
12:59 19,0 15,5 17,6 80,0 3,4 116 - 0,0 229 1.013,9
12:58 19,0 15,3 17,4 79,2 3,5 116 - 0,0 208 1.013,9
12:57 19,0 15,3 17,4 79,0 3,6 116 - 0,0 174 1.014,0
12:56 19,1 15,4 17,5 79,0 3,8 117 - 0,0 154 1.013,9
12:55 19,2 15,5 17,6 79,0 3,9 117 - 0,0 165 1.013,9
12:54 19,2 15,4 17,5 78,5 4,0 117 - 0,0 201 1.013,9
12:53 19,3 15,4 17,6 78,0 4,0 117 - 0,0 181 1.013,9
12:52 19,4 15,3 17,5 77,1 4,0 117 - 0,0 174 1.013,9
12:51 19,4 15,1 17,4 76,1 3,9 117 - 0,0 188 1.014,0
12:50 19,5 15,1 17,4 75,7 3,9 117 - 0,0 197 1.013,9
12:49 19,6 15,0 17,4 75,0 3,7 117 - 0,0 206 1.014,0
12:48 19,7 15,1 17,5 75,0 3,5 118 - 0,0 206 1.014,0
12:47 19,8 15,2 17,6 75,0 3,3 118 - 0,0 200 1.013,9
12:46 19,8 15,2 17,6 75,0 3,0 118 - 0,0 214 1.014,0
12:45 19,9 15,1 17,6 74,1 2,8 118 - 0,0 219 1.013,9
12:44 20,0 15,1 17,6 73,4 2,8 118 - 0,0 199 1.013,9
12:43 20,1 14,9 17,4 72,0 2,8 118 - 0,0 198 1.013,9
12:42 20,2 15,0 17,5 72,0 2,8 118 - 0,0 209 1.013,9
12:41 20,3 14,9 17,5 71,3 2,8 118 - 0,0 225 1.013,9
12:40 20,4 14,9 17,5 70,9 2,8 118 - 0,0 250 1.013,9
12:39 20,5 14,8 17,4 69,6 2,8 118 - 0,0 586 1.013,9
12:38 20,5 14,3 17,1 67,7 2,7 118 - 0,0 905 1.013,9
12:37 20,5 14,3 17,1 67,5 2,6 118 - 0,0 790 1.013,9
12:36 20,5 14,4 17,2 68,0 2,3 118 - 0,0 761 1.013,9
12:35 20,6 14,7 17,4 68,8 2,0 118 - 0,0 761 1.013,9
12:34 20,6 14,7 17,4 69,0 1,7 118 - 0,0 761 1.013,9
12:33 20,5 14,6 17,3 69,0 1,4 118 - 0,0 761 1.013,9
12:32 20,4 14,5 17,2 69,0 1,0 118 - 0,0 821 1.014,0
12:31 20,4 14,6 17,3 69,5 0,8 118 - 0,0 829 1.014,0
12:30 20,5 14,8 17,5 70,0 0,7 118 - 0,0 275 1.014,0
12:29 20,5 15,0 17,6 70,8 0,7 118 - 0,0 249 1.013,9
12:28 20,5 15,1 17,7 71,0 0,9 118 - 0,0 255 1.014,0
12:27 20,4 15,0 17,6 71,0 1,2 118 - 0,0 321 1.013,9
12:26 20,3 15,0 17,5 71,4 1,5 118 - 0,0 376 1.014,0
12:25 20,3 15,1 17,6 72,0 1,7 118 - 0,0 493 1.013,9
12:24 20,3 15,1 17,6 72,0 1,8 118 - 0,0 513 1.014,0
12:23 20,3 15,1 17,6 72,0 1,8 118 - 0,0 487 1.014,0
12:22 20,3 14,9 17,5 71,1 1,7 118 - 0,0 360 1.014,1
12:21 20,3 14,9 17,5 71,0 1,5 118 - 0,0 279 1.014,1
12:20 20,4 14,9 17,5 70,6 1,4 118 - 0,0 253 1.014,0
12:19 20,4 14,9 17,5 70,6 1,4 118 - 0,0 237 1.014,1
12:18 20,4 15,1 17,7 71,7 1,3 118 - 0,0 257 1.014,1
12:17 20,4 15,2 17,7 72,0 1,3 118 - 0,0 334 1.014,1
12:16 20,3 15,1 17,6 72,0 1,2 118 - 0,0 334 1.014,1
12:15 20,3 15,1 17,6 72,0 1,0 118 - 0,0 323 1.014,1
12:14 20,3 15,1 17,6 72,0 0,9 118 - 0,0 311 1.014,1
12:13 20,3 15,1 17,6 72,0 0,8 118 - 0,0 309 1.014,2
12:12 20,3 15,2 17,7 72,7 0,8 118 - 0,0 396 1.014,1
12:11 20,2 15,2 17,7 73,0 1,0 118 - 0,0 742 1.014,1
12:10 20,2 15,2 17,7 73,0 1,1 119 - 0,0 742 1.014,1
12:09 20,2 15,2 17,7 73,0 1,3 119 - 0,0 812 1.014,1
12:08 20,2 15,2 17,7 73,0 1,3 119 - 0,0 858 1.014,2
12:07 20,2 15,3 17,8 73,6 1,3 119 - 0,0 858 1.014,1
12:06 20,2 15,4 17,8 74,0 1,3 119 - 0,0 855 1.014,1
12:05 20,1 15,3 17,7 74,0 1,4 119 - 0,0 840 1.014,1
12:04 20,0 15,2 17,6 73,9 1,5 119 - 0,0 832 1.014,2
12:03 20,0 15,0 17,5 73,0 1,6 119 - 0,0 829 1.014,2
12:02 20,0 15,0 17,5 73,0 1,6 119 - 0,0 845 1.014,2
12:01 19,9 14,9 17,4 73,0 1,6 119 - 0,0 862 1.014,2
12:00 19,9 14,9 17,4 73,0 1,5 119 - 0,0 703 1.014,2
 
11:59 19,7 14,7 17,2 73,0 1,3 119 - 0,0 271 1.014,2
11:58 19,7 14,8 17,2 73,2 1,2 119 - 0,0 271 1.014,2
11:57 19,6 14,8 17,3 74,0 1,1 119 - 0,0 258 1.014,2
11:56 19,6 14,8 17,3 74,0 1,1 119 - 0,0 249 1.014,2
11:55 19,6 14,8 17,3 74,0 1,1 119 - 0,0 260 1.014,2
11:54 19,6 14,8 17,3 74,0 1,1 119 - 0,0 394 1.014,2
11:53 19,6 14,9 17,3 74,1 1,0 119 - 0,0 821 1.014,2
11:52 19,6 15,0 17,4 75,0 0,9 119 - 0,0 817 1.014,2
11:51 19,5 14,9 17,3 74,7 0,8 119 - 0,0 405 1.014,2
11:50 19,5 14,7 17,2 74,0 0,8 119 - 0,0 230 1.014,2
11:49 19,5 14,7 17,2 74,0 0,9 119 - 0,0 230 1.014,2
11:48 19,5 14,7 17,2 74,0 0,9 119 - 0,0 230 1.014,2
11:47 19,5 14,6 17,0 73,1 0,9 118 - 0,0 222 1.014,2
11:46 19,6 14,8 17,3 74,0 0,9 118 - 0,0 204 1.014,2
11:45 19,6 14,8 17,2 73,7 0,8 118 - 0,0 198 1.014,2
11:44 19,7 14,7 17,2 73,0 0,7 118 - 0,0 193 1.014,2
11:43 19,7 14,7 17,2 73,0 0,7 118 - 0,0 189 1.014,3
11:42 19,8 14,6 17,2 72,2 0,8 118 - 0,0 192 1.014,3
11:41 19,9 14,9 17,4 73,0 0,9 118 - 0,0 190 1.014,3
11:40 19,9 14,9 17,4 73,0 1,2 118 - 0,0 189 1.014,2
11:39 20,0 14,9 17,4 72,6 1,5 118 - 0,0 230 1.014,2
11:38 20,0 14,8 17,3 72,0 1,7 118 - 0,0 464 1.014,3
11:37 20,1 15,1 17,6 72,8 1,7 118 - 0,0 556 1.014,3
11:36 20,1 15,3 17,7 73,9 1,7 118 - 0,0 754 1.014,3
11:35 20,1 15,3 17,7 74,0 1,6 118 - 0,0 754 1.014,3
11:34 20,0 15,2 17,7 74,0 1,5 118 - 0,0 755 1.014,3
11:33 19,9 15,0 17,5 73,6 1,4 118 - 0,0 753 1.014,2
11:32 19,9 15,0 17,5 73,6 1,4 118 - 0,0 701 1.014,2
11:31 19,9 15,1 17,6 74,0 1,7 118 - 0,0 269 1.014,2
11:30 19,8 15,0 17,5 74,0 1,8 118 - 0,0 269 1.014,2
11:29 19,8 15,1 17,5 74,2 1,9 118 - 0,0 251 1.014,2
11:28 19,7 15,1 17,5 75,0 1,8 118 - 0,0 573 1.014,2
11:27 19,7 15,1 17,5 75,0 1,7 118 - 0,0 756 1.014,2
11:26 19,6 15,2 17,5 75,6 1,5 118 - 0,0 762 1.014,2
11:25 19,6 15,3 17,6 76,0 1,3 118 - 0,0 763 1.014,2
11:24 19,6 15,3 17,6 76,0 1,2 118 - 0,0 742 1.014,2
11:23 19,5 15,0 17,3 75,1 1,2 118 - 0,0 734 1.014,3
11:22 19,5 15,0 17,3 75,0 1,3 118 - 0,0 757 1.014,3
11:21 19,5 15,1 17,4 75,5 1,4 118 - 0,0 747 1.014,3
11:20 19,4 15,1 17,4 76,0 1,6 118 - 0,0 727 1.014,3
11:19 19,4 15,1 17,4 76,1 1,7 118 - 0,0 711 1.014,3
11:18 19,3 15,2 17,4 77,0 1,8 118 - 0,0 714 1.014,3
11:17 19,2 15,1 17,3 77,0 1,8 118 - 0,0 699 1.014,3
11:16 19,1 15,0 17,2 77,0 1,7 118 - 0,0 686 1.014,3
11:15 19,0 15,0 17,2 77,5 1,5 119 - 0,0 686 1.014,3
11:14 18,9 15,0 17,2 78,0 1,2 119 - 0,0 686 1.014,3
11:13 18,9 15,0 17,2 78,0 1,0 119 - 0,0 685 1.014,3
11:12 18,8 14,9 17,1 78,0 0,9 119 - 0,0 636 1.014,3
11:11 18,8 14,9 17,1 78,0 0,9 119 - 0,0 570 1.014,3
11:10 18,7 14,8 17,0 78,0 1,0 119 - 0,0 636 1.014,4
11:09 18,7 14,8 17,0 78,0 1,1 119 - 0,0 650 1.014,3
11:08 18,6 14,7 16,9 78,0 1,3 119 - 0,0 635 1.014,3
11:07 18,6 14,7 16,9 78,0 1,5 119 - 0,0 625 1.014,3
11:06 18,6 14,7 16,9 78,0 1,5 119 - 0,0 622 1.014,3
11:05 18,5 14,6 16,8 78,2 1,4 119 - 0,0 364 1.014,3
11:04 18,5 14,7 16,8 78,5 1,3 119 - 0,0 153 1.014,3
11:03 18,5 14,6 16,8 78,0 1,1 119 - 0,0 526 1.014,3
11:02 18,5 14,6 16,8 78,0 0,9 119 - 0,0 592 1.014,3
11:01 18,4 14,5 16,7 78,0 0,7 119 - 0,0 593 1.014,3
11:00 18,4 14,5 16,7 78,0 0,5 118 - 0,0 569 1.014,3
 
10:59 18,4 14,5 16,7 78,0 0,5 118 - 0,0 572 1.014,3
10:58 18,4 14,5 16,7 78,0 0,6 118 - 0,0 590 1.014,3
10:57 18,4 14,6 16,8 78,6 0,7 118 - 0,0 579 1.014,3
10:56 18,4 14,7 16,8 79,0 0,9 118 - 0,0 578 1.014,3
10:55 18,4 14,7 16,8 79,0 1,2 118 - 0,0 577 1.014,3
10:54 18,4 14,7 16,8 79,0 1,5 118 - 0,0 568 1.014,3
10:53 18,3 14,6 16,7 79,0 1,7 118 - 0,0 569 1.014,3
10:52 18,3 14,6 16,7 79,0 1,8 118 - 0,0 582 1.014,3
10:51 18,3 14,6 16,7 79,0 1,8 118 - 0,0 585 1.014,3
10:50 18,2 14,5 16,6 79,0 1,7 118 - 0,0 584 1.014,3
10:49 18,2 14,5 16,6 79,0 1,6 118 - 0,0 582 1.014,3
10:48 18,2 14,5 16,6 79,0 1,6 118 - 0,0 563 1.014,3
10:47 18,2 14,6 16,7 79,3 1,5 118 - 0,0 564 1.014,3
10:46 18,2 14,7 16,8 80,0 1,5 118 - 0,0 557 1.014,3
10:45 18,1 14,6 16,7 80,0 1,3 118 - 0,0 552 1.014,3
10:44 18,1 14,6 16,7 80,0 1,2 118 - 0,0 550 1.014,3
10:43 18,0 14,5 16,6 80,0 1,2 118 - 0,0 537 1.014,3
10:42 18,0 14,5 16,6 80,0 1,2 118 - 0,0 535 1.014,3
10:41 18,0 14,5 16,6 80,0 1,1 118 - 0,0 541 1.014,3
10:40 17,9 14,4 16,5 80,0 1,1 118 - 0,0 535 1.014,3
10:39 17,9 14,4 16,5 80,0 1,1 118 - 0,0 531 1.014,3
10:38 17,9 14,4 16,5 80,0 1,0 118 - 0,0 531 1.014,3
10:37 17,9 14,4 16,5 80,0 1,0 118 - 0,0 529 1.014,3
10:36 17,9 14,4 16,5 80,0 0,8 118 - 0,0 527 1.014,3
10:35 17,8 14,3 16,4 80,0 0,7 118 - 0,0 524 1.014,4
10:34 17,8 14,3 16,4 80,0 0,7 118 - 0,0 522 1.014,4
10:33 17,8 14,3 16,4 80,0 0,7 118 - 0,0 516 1.014,4
10:32 17,8 14,3 16,4 80,0 0,6 118 - 0,0 517 1.014,4
10:31 17,8 14,3 16,4 80,0 0,6 118 - 0,0 516 1.014,4
10:30 17,8 14,3 16,4 80,0 0,6 118 - 0,0 514 1.014,4
10:29 17,7 14,3 16,3 80,4 0,6 118 - 0,0 511 1.014,4
10:28 17,7 14,4 16,4 81,0 0,6 118 - 0,0 508 1.014,4
10:27 17,7 14,4 16,4 81,0 0,7 118 - 0,0 507 1.014,4
10:26 17,7 14,4 16,4 81,0 0,7 119 - 0,0 504 1.014,4
10:25 17,7 14,4 16,4 81,0 0,8 119 - 0,0 503 1.014,5
10:24 17,6 14,3 16,3 81,0 0,9 119 - 0,0 502 1.014,5
10:23 17,6 14,3 16,3 81,0 1,0 119 - 0,0 500 1.014,5
10:22 17,6 14,3 16,3 81,0 1,0 119 - 0,0 497 1.014,4
10:21 17,6 14,3 16,3 81,0 1,0 119 - 0,0 496 1.014,4
10:20 17,6 14,3 16,3 81,0 0,9 119 - 0,0 493 1.014,4
10:19 17,5 14,2 16,2 81,0 0,9 119 - 0,0 491 1.014,4
10:18 17,5 14,2 16,2 81,0 0,8 119 - 0,0 490 1.014,4
10:17 17,4 14,1 16,1 81,0 0,7 119 - 0,0 489 1.014,4
10:16 17,4 14,1 16,1 81,0 0,7 119 - 0,0 485 1.014,4
10:15 17,4 14,1 16,1 81,0 0,8 119 - 0,0 483 1.014,4
10:14 17,4 14,3 16,2 81,9 0,8 119 - 0,0 481 1.014,4
10:13 17,4 14,3 16,2 82,0 0,9 119 - 0,0 451 1.014,4
10:12 17,3 14,2 16,1 82,0 0,9 119 - 0,0 365 1.014,4
10:11 17,3 14,2 16,1 82,0 1,0 119 - 0,0 255 1.014,4
10:09 17,3 14,1 16,1 81,7 1,0 119 - 0,0 89 1.014,4
10:08 17,3 14,2 16,1 82,0 1,0 119 - 0,0 84 1.014,4
10:07 17,3 14,0 16,0 81,1 0,9 119 - 0,0 84 1.014,5
10:06 17,2 13,9 15,9 81,0 0,9 119 - 0,0 84 1.014,5
10:05 17,2 13,9 15,9 81,0 0,9 119 - 0,0 84 1.014,5
10:04 17,2 14,0 16,0 81,7 1,0 119 - 0,0 84 1.014,5
10:03 17,2 14,1 16,0 82,0 1,1 119 - 0,0 84 1.014,5
10:02 17,2 14,1 16,0 82,0 1,2 119 - 0,0 84 1.014,5
10:01 17,2 14,1 16,0 82,0 1,2 119 - 0,0 84 1.014,5
10:00 17,2 14,1 16,0 82,0 1,1 119 - 0,0 84 1.014,5
 
09:59 17,2 14,1 16,0 82,0 1,1 119 - 0,0 84 1.014,5
09:58 17,2 14,1 16,0 82,0 1,0 119 - 0,0 84 1.014,6
09:57 17,2 14,1 16,0 82,0 0,9 118 - 0,0 84 1.014,6
09:56 17,1 14,0 15,9 82,0 0,9 118 - 0,0 84 1.014,6
09:55 17,1 14,0 15,9 82,0 0,8 118 - 0,0 84 1.014,6
09:54 17,1 14,0 15,9 82,0 0,7 118 - 0,0 260 1.014,6
09:53 17,1 14,0 15,9 82,0 0,6 118 - 0,0 355 1.014,6
09:52 17,1 13,9 15,8 81,4 0,6 118 - 0,0 365 1.014,6
09:51 17,1 13,8 15,8 81,0 0,5 118 - 0,0 425 1.014,6
09:50 17,1 13,8 15,8 81,0 0,5 118 - 0,0 428 1.014,6
09:49 17,1 13,8 15,8 81,0 0,6 118 - 0,0 426 1.014,6
09:48 17,1 13,8 15,8 81,0 0,6 118 - 0,0 424 1.014,6
09:47 17,1 13,8 15,8 81,0 0,6 118 - 0,0 420 1.014,6
09:46 17,1 13,8 15,8 81,0 0,7 119 - 0,0 417 1.014,6
09:45 17,1 13,8 15,8 81,0 0,9 119 - 0,0 413 1.014,6
09:44 17,1 13,8 15,8 81,0 1,2 119 - 0,0 410 1.014,6
09:43 17,1 13,8 15,8 81,0 1,3 119 - 0,0 407 1.014,6
09:42 17,1 13,8 15,8 81,0 1,5 119 - 0,0 404 1.014,6
09:41 17,1 13,8 15,8 81,0 1,7 119 - 0,0 400 1.014,6
09:40 17,1 13,9 15,9 81,7 1,9 119 - 0,0 397 1.014,6
09:39 17,1 14,0 15,9 82,0 2,0 119 - 0,0 396 1.014,6
09:38 17,1 14,0 15,9 82,0 2,1 119 - 0,0 397 1.014,6
09:37 17,0 13,9 15,8 82,0 2,0 119 - 0,0 396 1.014,6
09:36 17,0 13,9 15,8 82,0 2,0 119 - 0,0 395 1.014,6
09:35 16,9 13,8 15,7 82,0 2,0 119 - 0,0 392 1.014,6
09:34 16,9 13,8 15,7 82,0 1,8 119 - 0,0 388 1.014,6
09:33 16,8 13,7 15,6 82,0 1,8 119 - 0,0 387 1.014,6
09:32 16,8 13,7 15,6 82,0 1,9 119 - 0,0 385 1.014,6
09:31 16,8 13,8 15,7 82,3 2,1 119 - 0,0 382 1.014,6
09:30 16,7 13,8 15,6 83,0 2,1 119 - 0,0 379 1.014,6
09:29 16,7 13,8 15,6 83,0 2,2 119 - 0,0 376 1.014,6
09:28 16,6 13,7 15,5 83,0 2,3 119 - 0,0 373 1.014,6
09:27 16,6 13,7 15,5 83,0 2,4 119 - 0,0 371 1.014,6
09:26 16,6 13,7 15,5 83,0 2,3 119 - 0,0 370 1.014,6
09:25 16,5 13,6 15,4 83,0 2,2 119 - 0,0 367 1.014,6
09:24 16,5 13,6 15,4 83,0 2,3 119 - 0,0 363 1.014,6
09:23 16,4 13,5 15,3 83,0 2,4 119 - 0,0 360 1.014,6
09:22 16,4 13,6 15,4 83,7 2,3 119 - 0,0 356 1.014,6
09:21 16,4 13,7 15,5 84,0 2,2 119 - 0,0 353 1.014,6
09:20 16,3 13,6 15,4 84,0 2,0 119 - 0,0 352 1.014,6
09:19 16,3 13,6 15,4 84,0 1,9 119 - 0,0 352 1.014,6
09:18 16,3 13,6 15,4 84,0 1,8 119 - 0,0 352 1.014,6
09:17 16,3 13,6 15,4 84,0 1,6 119 - 0,0 352 1.014,6
09:16 16,2 13,5 15,3 84,0 1,4 119 - 0,0 350 1.014,6
09:15 16,2 13,5 15,3 84,1 1,3 119 - 0,0 349 1.014,6
09:14 16,1 13,6 15,3 85,0 1,3 119 - 0,0 347 1.014,6
09:13 16,1 13,6 15,3 85,0 1,4 119 - 0,0 345 1.014,6
09:12 16,1 13,6 15,3 85,0 1,5 119 - 0,0 349 1.014,6
09:11 16,0 13,5 15,2 85,0 1,7 118 - 0,0 353 1.014,6
09:10 16,0 13,5 15,2 85,0 1,9 118 - 0,0 352 1.014,6
09:09 15,9 13,4 15,1 85,0 2,2 118 - 0,0 348 1.014,5
09:08 15,9 13,4 15,1 85,0 2,4 118 - 0,0 346 1.014,5
09:07 15,8 13,3 15,0 85,0 2,5 118 - 0,0 346 1.014,5
09:06 15,8 13,3 15,0 85,0 2,4 118 - 0,0 339 1.014,5
09:05 15,8 13,3 15,0 85,0 2,3 118 - 0,0 333 1.014,5
09:04 15,7 13,2 14,9 85,0 2,2 118 - 0,0 329 1.014,6
09:03 15,7 13,2 14,9 85,0 2,1 118 - 0,0 307 1.014,6
09:02 15,7 13,2 14,9 85,0 2,0 118 - 0,0 312 1.014,5
09:01 15,7 13,3 14,9 85,4 2,0 118 - 0,0 265 1.014,5
09:00 15,7 13,4 15,0 86,0 2,0 118 - 0,0 161 1.014,6
 
08:59 15,7 13,4 15,0 86,0 2,0 118 - 0,0 134 1.014,5
08:58 15,6 13,1 14,8 85,2 2,0 118 - 0,0 128 1.014,5
08:57 15,6 13,3 14,9 86,0 2,0 118 - 0,0 129 1.014,5
08:56 15,6 13,3 14,9 86,0 2,1 118 - 0,0 120 1.014,5
08:55 15,6 13,3 14,9 86,0 2,2 118 - 0,0 120 1.014,5
08:54 15,6 13,3 14,9 86,0 2,3 118 - 0,0 125 1.014,5
08:53 15,5 13,2 14,8 86,0 2,5 118 - 0,0 125 1.014,5
08:52 15,5 13,2 14,8 86,0 2,7 118 - 0,0 177 1.014,5
08:51 15,5 13,2 14,8 86,0 2,9 118 - 0,0 237 1.014,5
08:50 15,5 13,2 14,8 86,0 2,9 118 - 0,0 238 1.014,4
08:49 15,4 13,1 14,7 86,0 2,7 118 - 0,0 189 1.014,5
08:48 15,4 13,1 14,7 86,0 2,5 118 - 0,0 131 1.014,4
08:47 15,4 13,1 14,7 86,0 2,2 118 - 0,0 127 1.014,5
08:46 15,4 13,1 14,7 86,0 1,9 118 - 0,0 136 1.014,5
08:45 15,4 13,1 14,7 86,0 1,7 119 - 0,0 151 1.014,5
08:44 15,4 13,1 14,7 86,0 1,8 119 - 0,0 151 1.014,5
08:43 15,4 13,1 14,7 86,0 2,0 119 - 0,0 138 1.014,5
08:42 15,3 13,0 14,6 86,0 2,2 119 - 0,0 132 1.014,5
08:41 15,3 13,0 14,6 86,0 2,3 119 - 0,0 134 1.014,5
08:40 15,3 13,0 14,6 86,0 2,3 120 - 0,0 134 1.014,5
08:39 15,3 13,0 14,6 86,0 2,3 120 - 0,0 133 1.014,5
08:38 15,3 13,0 14,6 86,0 2,4 120 - 0,0 132 1.014,5
08:37 15,3 13,0 14,6 86,0 2,5 121 - 0,0 130 1.014,5
08:35 15,3 13,1 14,7 86,8 2,6 122 - 0,0 128 1.014,5
08:34 15,3 13,1 14,7 87,0 2,6 122 - 0,0 127 1.014,5
08:33 15,3 13,1 14,7 87,0 2,7 123 - 0,0 127 1.014,5
08:32 15,3 13,1 14,7 87,0 2,6 124 - 0,0 126 1.014,5
08:31 15,3 13,1 14,7 87,0 2,3 125 - 0,0 123 1.014,5
08:30 15,2 13,0 14,6 87,0 2,1 127 - 0,0 121 1.014,6
08:29 15,2 13,0 14,6 87,0 2,0 128 - 0,0 120 1.014,6
08:28 15,2 13,0 14,6 87,0 2,0 130 - 0,0 116 1.014,6
08:27 15,2 13,0 14,6 87,0 2,0 131 - 0,0 114 1.014,6
08:26 15,2 13,0 14,6 87,0 2,0 133 - 0,0 112 1.014,6
08:25 15,2 13,0 14,6 87,0 2,0 134 - 0,0 111 1.014,6
08:24 15,2 13,0 14,6 87,0 2,1 136 - 0,0 111 1.014,6
08:23 15,2 13,0 14,6 87,0 2,1 137 - 0,0 112 1.014,6
08:22 15,2 13,0 14,6 87,0 2,1 139 - 0,0 114 1.014,6
08:21 15,2 13,0 14,6 87,0 2,2 140 - 0,0 115 1.014,5
08:20 15,2 13,0 14,6 87,0 2,2 141 - 0,0 116 1.014,5
08:19 15,1 13,0 14,5 87,0 2,3 142 - 0,0 116 1.014,6
08:18 15,1 13,0 14,5 87,0 2,3 143 - 0,0 116 1.014,6
08:17 15,1 13,0 14,5 87,0 2,3 144 - 0,0 116 1.014,6
08:16 15,1 13,0 14,5 87,0 2,2 145 - 0,0 116 1.014,6
08:15 15,1 13,0 14,5 87,3 2,2 145 - 0,0 116 1.014,6
08:14 15,1 13,1 14,6 87,6 2,0 146 - 0,0 116 1.014,6
08:13 15,1 13,0 14,5 87,0 1,9 146 - 0,0 116 1.014,6
08:12 15,1 13,0 14,5 87,0 1,8 146 - 0,0 116 1.014,6
08:11 15,1 13,1 14,6 87,9 1,7 146 - 0,0 114 1.014,5
08:10 15,1 13,1 14,6 88,0 1,5 146 - 0,0 114 1.014,6
08:09 15,1 13,1 14,6 88,0 1,5 146 - 0,0 114 1.014,6
08:08 15,1 13,1 14,6 88,0 1,5 146 - 0,0 113 1.014,5
08:07 15,1 13,1 14,6 88,0 1,5 146 - 0,0 113 1.014,5
08:06 15,1 13,1 14,6 88,0 1,6 146 - 0,0 109 1.014,5
08:05 15,1 13,1 14,6 88,0 1,6 147 - 0,0 109 1.014,5
08:04 15,1 13,1 14,6 88,0 1,7 147 - 0,0 108 1.014,5
08:03 15,1 13,1 14,6 88,0 1,9 147 - 0,0 105 1.014,5
08:02 15,1 13,1 14,6 88,0 2,0 147 - 0,0 101 1.014,5
08:01 15,1 13,1 14,6 88,0 2,0 147 - 0,0 95 1.014,5
08:00 15,1 13,2 14,7 88,7 2,0 147 - 0,0 90 1.014,5
 
07:59 15,1 13,3 14,7 89,0 1,8 148 - 0,0 87 1.014,5
07:58 15,1 13,3 14,7 89,0 1,6 148 - 0,0 86 1.014,5
07:57 15,1 13,3 14,7 89,0 1,4 149 - 0,0 91 1.014,4
07:56 15,0 13,2 14,6 89,0 1,3 149 - 0,0 104 1.014,4
07:55 15,0 13,2 14,6 89,0 1,2 150 - 0,0 108 1.014,4
07:54 15,0 13,3 14,7 89,8 1,2 149 - 0,0 111 1.014,4
07:53 15,0 13,4 14,8 90,0 1,2 149 - 0,0 131 1.014,4
07:52 14,9 13,3 14,7 90,0 1,3 148 - 0,0 141 1.014,4
07:51 14,9 13,3 14,7 90,0 1,3 147 - 0,0 132 1.014,4
07:50 14,9 13,3 14,7 90,0 1,2 145 - 0,0 120 1.014,4
07:49 14,8 13,2 14,6 90,0 1,2 143 - 0,0 128 1.014,4
07:48 14,8 13,2 14,6 90,0 1,2 141 - 0,0 138 1.014,4
07:47 14,8 13,2 14,6 90,0 1,2 138 - 0,0 142 1.014,4
07:46 14,7 13,1 14,4 90,0 1,2 136 - 0,0 142 1.014,3
07:45 14,7 13,1 14,5 90,4 1,3 133 - 0,0 140 1.014,4
07:44 14,7 13,2 14,6 91,0 1,3 131 - 0,0 135 1.014,3
07:43 14,6 13,1 14,5 91,0 1,3 129 - 0,0 130 1.014,4
07:42 14,6 13,1 14,5 91,0 1,4 126 - 0,0 127 1.014,4
07:41 14,6 13,1 14,5 91,0 1,4 124 - 0,0 124 1.014,4
07:40 14,5 13,0 14,4 91,0 1,4 121 - 0,0 121 1.014,3
07:39 14,5 13,0 14,4 91,0 1,3 118 - 0,0 119 1.014,3
07:38 14,4 12,9 14,2 91,0 1,3 116 - 0,0 118 1.014,3
07:37 14,4 12,9 14,2 91,0 1,3 114 - 0,0 116 1.014,3
07:36 14,4 12,9 14,2 91,0 1,1 112 - 0,0 112 1.014,3
07:35 14,4 12,9 14,2 91,0 1,0 110 - 0,0 109 1.014,3
07:34 14,4 12,9 14,2 91,0 0,8 109 - 0,0 104 1.014,3
07:33 14,3 12,9 14,1 91,0 0,6 107 - 0,0 95 1.014,3
07:32 14,3 12,9 14,1 91,0 0,5 107 - 0,0 91 1.014,3
07:31 14,3 12,9 14,1 91,0 0,6 106 - 0,0 97 1.014,3
07:30 14,3 12,9 14,1 91,0 0,6 106 - 0,0 98 1.014,3
07:29 14,3 12,9 14,1 91,0 0,6 106 - 0,0 92 1.014,3
07:28 14,3 12,9 14,2 91,3 0,6 105 - 0,0 85 1.014,3
07:27 14,2 12,9 14,1 92,0 0,5 105 - 0,0 89 1.014,3
07:26 14,2 12,9 14,1 92,0 0,5 105 - 0,0 91 1.014,3
07:25 14,2 12,9 14,1 92,0 0,4 105 - 0,0 91 1.014,3
07:24 14,2 12,9 14,1 92,0 0,4 105 - 0,0 91 1.014,3
07:23 14,2 12,9 14,1 92,0 0,4 104 - 0,0 89 1.014,2
07:22 14,1 12,8 14,0 92,0 0,4 104 - 0,0 87 1.014,3
07:21 14,1 12,8 14,0 91,6 0,5 103 - 0,0 85 1.014,2
07:20 14,1 12,8 14,0 91,6 0,4 103 - 0,0 84 1.014,2
07:19 14,1 12,8 14,0 92,0 0,4 103 - 0,0 83 1.014,2
07:18 14,1 12,8 14,0 92,0 0,4 103 - 0,0 82 1.014,2
07:17 14,0 12,7 13,9 92,0 0,4 103 - 0,0 80 1.014,2
07:16 14,0 12,7 13,9 92,0 0,5 103 - 0,0 78 1.014,2
07:15 14,0 12,7 13,9 92,0 0,6 103 - 0,0 76 1.014,1
07:14 13,9 12,6 13,8 92,0 0,7 104 - 0,0 74 1.014,2
07:13 13,9 12,6 13,8 92,0 0,7 104 - 0,0 72 1.014,2
07:12 13,9 12,6 13,8 92,0 0,8 104 - 0,0 70 1.014,1
07:11 13,9 12,6 13,8 92,0 0,8 104 - 0,0 69 1.014,1
07:10 13,8 12,5 13,7 92,0 0,8 104 - 0,0 68 1.014,1
07:09 13,8 12,5 13,7 92,0 0,8 105 - 0,0 65 1.014,1
07:08 13,8 12,5 13,7 92,0 0,7 105 - 0,0 63 1.014,1
07:07 13,8 12,5 13,7 92,0 0,7 105 - 0,0 62 1.014,1
07:06 13,8 12,5 13,7 92,0 0,7 106 - 0,0 59 1.014,1
07:05 13,8 12,5 13,7 92,0 0,6 106 - 0,0 57 1.014,1
07:04 13,7 12,4 13,6 92,0 0,6 106 - 0,0 55 1.014,1
07:03 13,7 12,4 13,6 92,0 0,6 107 - 0,0 53 1.014,2
07:02 13,7 12,4 13,6 92,0 0,6 107 - 0,0 51 1.014,2
07:01 13,7 12,4 13,6 92,0 0,6 107 - 0,0 49 1.014,1
07:00 13,7 12,4 13,6 92,0 0,7 107 - 0,0 48 1.014,1
 
06:59 13,7 12,4 13,6 92,0 0,7 107 - 0,0 47 1.014,2
06:58 13,7 12,4 13,6 92,0 0,8 107 - 0,0 46 1.014,1
06:57 13,7 12,4 13,6 92,0 0,8 107 - 0,0 44 1.014,1
06:56 13,7 12,3 13,6 91,4 0,8 107 - 0,0 42 1.014,1
06:55 13,7 12,3 13,5 91,0 0,9 108 - 0,0 38 1.014,1
06:54 13,7 12,3 13,5 91,0 0,9 108 - 0,0 38 1.014,1
06:53 13,7 12,3 13,5 91,0 0,9 108 - 0,0 39 1.014,1
06:52 13,6 12,2 13,4 91,0 0,9 108 - 0,0 39 1.014,0
06:51 13,6 12,2 13,4 91,0 0,9 108 - 0,0 37 1.014,1
06:50 13,6 12,2 13,4 91,0 1,0 107 - 0,0 35 1.014,1
06:49 13,6 12,2 13,4 91,0 1,0 107 - 0,0 34 1.014,1
06:48 13,6 12,2 13,4 91,0 1,0 107 - 0,0 33 1.014,1
06:47 13,6 12,2 13,4 91,0 1,1 107 - 0,0 31 1.014,0
06:46 13,6 12,2 13,4 91,0 1,1 107 - 0,0 29 1.014,0
06:45 13,6 12,2 13,4 91,0 1,1 106 - 0,0 26 1.014,0
06:44 13,6 12,2 13,4 91,0 1,2 106 - 0,0 25 1.014,0
06:43 13,6 12,2 13,4 91,0 1,3 105 - 0,0 23 1.014,0
06:42 13,6 12,2 13,4 91,0 1,4 105 - 0,0 23 1.014,0
06:41 13,6 12,2 13,4 91,0 1,4 105 - 0,0 22 1.014,0
06:40 13,7 12,3 13,5 91,0 1,5 104 - 0,0 21 1.014,0
06:39 13,7 12,3 13,5 91,0 1,6 104 - 0,0 21 1.014,0
06:38 13,7 12,3 13,5 91,0 1,7 103 - 0,0 21 1.014,0
06:37 13,7 12,3 13,5 91,0 1,7 103 - 0,0 19 1.014,0
06:36 13,7 12,3 13,5 91,0 1,8 103 - 0,0 19 1.014,0
06:35 13,7 12,3 13,5 91,0 1,9 102 - 0,0 18 1.014,0
06:34 13,7 12,3 13,5 91,0 2,0 102 - 0,0 18 1.014,0
06:33 13,7 12,3 13,5 91,0 2,0 102 - 0,0 18 1.014,0
06:32 13,7 12,3 13,5 91,0 2,1 102 - 0,0 16 1.014,0
06:31 13,7 12,3 13,5 91,0 2,1 101 - 0,0 16 1.014,0
06:30 13,7 12,3 13,5 91,0 2,1 101 - 0,0 15 1.014,0
06:29 13,7 12,3 13,5 91,0 2,1 101 - 0,0 14 1.013,9
06:28 13,7 12,3 13,5 91,0 2,1 101 - 0,0 14 1.014,0
06:27 13,7 12,3 13,5 91,0 2,0 101 - 0,0 12 1.013,9
06:26 13,7 12,3 13,5 91,0 2,0 101 - 0,0 12 1.013,9
06:25 13,7 12,3 13,5 91,0 2,0 101 - 0,0 12 1.013,9
06:24 13,7 12,3 13,5 91,0 1,9 101 - 0,0 12 1.013,9
06:23 13,7 12,3 13,5 91,0 1,9 101 - 0,0 11 1.013,9
06:22 13,7 12,3 13,5 91,0 2,0 102 - 0,0 11 1.013,9
06:21 13,7 - - - - - - - - -
06:20 13,8 12,4 13,6 91,0 2,0 102 - 0,0 11 1.013,9
06:19 13,8 12,4 13,6 91,0 1,9 102 - 0,0 9 1.013,9
06:18 13,8 12,4 13,6 91,0 1,9 102 - 0,0 9 1.013,9
06:17 13,8 12,4 13,6 91,0 1,8 102 - 0,0 9 1.013,9
06:16 13,8 12,4 13,6 91,0 1,8 102 - 0,0 7 1.013,9
06:15 13,8 12,4 13,6 91,0 1,7 102 - 0,0 7 1.013,9
06:14 13,8 12,4 13,6 91,0 1,7 102 - 0,0 7 1.013,9
06:13 13,8 12,4 13,6 91,0 1,7 102 - 0,0 7 1.013,9
06:12 13,8 12,4 13,6 91,0 1,7 102 - 0,0 7 1.013,9
06:11 13,8 12,4 13,6 91,0 1,7 102 - 0,0 5 1.013,9
06:10 13,8 12,4 13,6 91,0 1,7 102 - 0,0 5 1.013,9
06:09 13,8 12,4 13,6 91,0 1,8 103 - 0,0 5 1.013,9
06:08 13,8 12,4 13,6 91,0 1,8 103 - 0,0 5 1.013,9
06:07 13,8 12,4 13,6 91,0 1,9 103 - 0,0 5 1.013,9
06:06 13,8 12,4 13,6 91,0 1,9 103 - 0,0 5 1.013,9
06:05 13,8 12,4 13,6 91,0 1,9 103 - 0,0 1 1.013,9
06:04 13,8 12,4 13,6 91,0 1,9 102 - 0,0 0 1.013,9
06:03 13,8 12,4 13,6 91,0 2,0 102 - 0,0 0 1.013,9
06:02 13,8 12,4 13,6 91,0 2,0 102 - 0,0 0 1.013,9
06:01 13,8 12,4 13,6 91,0 1,9 102 - 0,0 0 1.013,9
06:00 13,8 12,4 13,6 91,0 1,9 102 - 0,0 0 1.013,9
 
05:59 13,8 12,4 13,6 91,0 1,9 102 - 0,0 0 1.013,9
05:58 13,8 12,4 13,6 91,0 1,8 102 - 0,0 0 1.013,9
05:57 13,8 12,4 13,6 91,0 1,8 102 - 0,0 0 1.013,9
05:56 13,8 12,4 13,6 91,0 1,8 102 - 0,0 0 1.014,0
05:55 13,8 12,4 13,6 91,0 1,8 102 - 0,0 0 1.014,0
05:54 13,8 12,4 13,6 91,0 1,8 102 - 0,0 0 1.014,0
05:53 13,8 12,4 13,6 91,0 1,8 102 - 0,0 0 1.014,0
05:52 13,8 12,4 13,6 91,0 1,9 102 - 0,0 0 1.014,0
05:51 13,8 12,4 13,6 91,0 1,9 102 - 0,0 0 1.013,9
05:50 13,8 12,4 13,6 91,0 1,9 102 - 0,0 0 1.013,9
05:49 13,8 12,4 13,6 91,0 1,9 103 - 0,0 0 1.013,9
05:48 13,8 12,4 13,6 91,0 1,9 103 - 0,0 0 1.013,9
05:47 13,8 12,4 13,6 91,0 1,8 103 - 0,0 0 1.013,9
05:46 13,8 12,4 13,6 91,0 1,8 104 - 0,0 0 1.014,0
05:45 13,8 12,4 13,6 91,0 1,7 104 - 0,0 0 1.013,9
05:44 13,8 12,4 13,6 91,0 1,6 105 - 0,0 0 1.013,9
05:43 13,8 12,4 13,6 91,0 1,5 105 - 0,0 0 1.013,9
05:42 13,8 12,4 13,6 91,0 1,4 106 - 0,0 0 1.013,9
05:41 13,8 12,4 13,6 91,0 1,3 106 - 0,0 0 1.013,9
05:40 13,8 12,4 13,6 91,0 1,3 107 - 0,0 0 1.013,9
05:39 13,8 12,4 13,6 91,0 1,2 107 - 0,0 0 1.013,9
05:38 13,8 12,4 13,6 91,0 1,2 108 - 0,0 0 1.013,9
05:37 13,8 12,4 13,6 91,0 1,1 108 - 0,0 0 1.013,9
05:36 13,8 12,4 13,6 91,0 1,1 109 - 0,0 0 1.013,9
05:35 13,8 12,4 13,6 91,0 1,2 109 - 0,0 0 1.013,9
05:34 13,8 12,4 13,6 91,0 1,2 110 - 0,0 0 1.013,9
05:33 13,8 12,4 13,6 91,0 1,2 110 - 0,0 0 1.013,9
05:32 13,8 12,4 13,6 91,0 1,3 110 - 0,0 0 1.013,9
05:31 13,8 12,4 13,6 91,0 1,3 110 - 0,0 0 1.013,9
05:30 13,8 12,4 13,6 91,0 1,2 110 - 0,0 0 1.013,9
05:29 13,8 12,4 13,6 91,0 1,2 110 - 0,0 0 1.013,9
05:28 13,8 12,4 13,6 91,0 1,2 110 - 0,0 0 1.013,9
05:27 13,8 12,4 13,6 91,0 1,2 110 - 0,0 0 1.013,9
05:26 13,8 12,4 13,6 91,0 1,2 110 - 0,0 0 1.013,9
05:25 13,8 12,4 13,6 91,0 1,3 110 - 0,0 0 1.013,8
05:24 13,8 12,4 13,6 91,0 1,3 110 - 0,0 0 1.013,9
05:23 13,8 12,4 13,6 91,0 1,3 110 - 0,0 0 1.013,9
05:22 13,8 12,4 13,6 91,0 1,4 110 - 0,0 0 1.013,9
05:21 13,8 12,4 13,6 91,0 1,4 110 - 0,0 0 1.013,8
05:20 13,8 12,4 13,6 91,0 1,4 110 - 0,0 0 1.013,8
05:19 13,8 12,4 13,6 91,0 1,4 110 - 0,0 0 1.013,8
05:18 13,8 12,4 13,6 91,0 1,4 110 - 0,0 0 1.013,8
05:17 13,8 12,4 13,6 91,0 1,4 110 - 0,0 0 1.013,9
05:16 13,8 12,4 13,6 91,0 1,4 110 - 0,0 0 1.013,9
05:15 13,8 12,4 13,6 91,0 1,3 110 - 0,0 0 1.013,9
05:14 13,8 12,4 13,6 91,0 1,3 111 - 0,0 0 1.013,9
05:13 13,8 12,3 13,6 90,5 1,3 111 - 0,0 0 1.013,9
05:12 13,8 12,2 13,5 90,0 1,3 111 - 0,0 0 1.013,9
05:11 13,8 12,2 13,5 90,0 1,3 111 - 0,0 0 1.013,9
05:10 13,8 12,2 13,5 90,0 1,3 111 - 0,0 0 1.013,9
05:09 13,8 12,2 13,5 90,0 1,3 111 - 0,0 0 1.013,9
05:08 13,8 12,2 13,5 90,0 1,2 112 - 0,0 0 1.013,9
05:07 13,8 12,2 13,5 90,0 1,1 112 - 0,0 0 1.013,9
05:06 13,8 12,2 13,5 90,0 1,0 112 - 0,0 0 1.013,9
05:05 13,8 12,2 13,5 90,0 0,8 112 - 0,0 0 1.013,9
05:04 13,8 12,2 13,5 90,0 0,7 113 - 0,0 0 1.014,0
05:03 13,8 12,2 13,5 90,0 0,6 113 - 0,0 0 1.013,9
05:02 13,8 12,2 13,5 90,0 0,5 113 - 0,0 0 1.013,9
05:01 13,8 12,2 13,5 90,0 0,4 113 - 0,0 0 1.013,9
05:00 13,8 12,2 13,5 90,0 0,4 114 - 0,0 0 1.013,9
 
04:59 13,8 12,2 13,5 90,0 0,4 114 - 0,0 0 1.013,9
04:58 13,8 12,2 13,5 90,0 0,5 114 - 0,0 0 1.013,9
04:57 13,8 12,2 13,5 90,0 0,5 114 - 0,0 0 1.013,9
04:56 13,8 12,2 13,5 90,0 0,6 114 - 0,0 0 1.013,9
04:55 13,9 12,3 13,6 90,0 0,7 114 - 0,0 0 1.013,9
04:54 13,9 12,3 13,6 90,0 0,8 114 - 0,0 0 1.013,9
04:53 13,9 12,3 13,6 90,0 0,9 114 - 0,0 0 1.013,9
04:52 13,9 12,3 13,6 90,0 1,0 114 - 0,0 0 1.013,9
04:51 13,9 12,3 13,6 90,0 1,0 113 - 0,0 0 1.013,9
04:50 13,9 12,3 13,6 90,0 1,0 113 - 0,0 0 1.013,9
04:49 13,9 12,3 13,6 90,0 0,9 112 - 0,0 0 1.013,9
04:48 14,0 12,4 13,7 90,0 0,9 112 - 0,0 0 1.013,9
04:47 13,9 12,3 13,6 90,0 0,9 111 - 0,0 0 1.013,9
04:46 14,0 12,4 13,7 90,0 0,8 111 - 0,0 0 1.013,9
04:45 14,0 12,4 13,7 90,0 0,8 110 - 0,0 0 1.013,9
04:44 14,0 12,4 13,7 90,0 0,9 110 - 0,0 0 1.013,9
04:43 14,0 12,4 13,7 90,0 1,0 110 - 0,0 0 1.013,9
04:42 14,0 12,4 13,7 90,0 1,1 109 - 0,0 0 1.013,9
04:41 14,1 12,5 13,8 90,0 1,2 109 - 0,0 0 1.013,9
04:40 14,1 12,5 13,8 90,0 1,3 108 - 0,0 0 1.013,9
04:39 14,1 12,5 13,8 90,0 1,3 107 - 0,0 0 1.013,9
04:38 14,1 12,5 13,8 90,0 1,3 107 - 0,0 0 1.013,9
04:37 14,1 12,5 13,8 90,0 1,3 106 - 0,0 0 1.013,9
04:36 14,1 12,5 13,8 90,0 1,3 105 - 0,0 0 1.013,9
04:35 14,1 12,5 13,8 90,0 1,3 105 - 0,0 0 1.013,8
04:34 14,1 12,3 13,7 89,2 1,4 104 - 0,0 0 1.013,9
04:33 14,1 12,3 13,7 89,0 1,5 104 - 0,0 0 1.013,9
04:32 14,2 12,4 13,8 89,0 1,6 104 - 0,0 0 1.013,9
04:31 14,2 12,4 13,8 89,0 1,7 104 - 0,0 0 1.013,9
04:30 14,2 12,4 13,8 89,0 1,8 104 - 0,0 0 1.013,9
04:29 14,2 12,4 13,8 89,0 1,9 104 - 0,0 0 1.013,9
04:28 14,2 12,4 13,8 89,0 1,9 104 - 0,0 0 1.013,8
04:27 14,2 12,4 13,8 89,0 1,8 104 - 0,0 0 1.013,9
04:26 14,2 12,4 13,8 89,0 1,8 104 - 0,0 0 1.013,9
04:25 14,2 12,4 13,8 89,0 1,7 104 - 0,0 0 1.013,9
04:24 14,2 12,4 13,8 89,0 1,6 104 - 0,0 0 1.013,9
04:23 14,3 12,5 13,9 89,0 1,6 104 - 0,0 0 1.013,9
04:22 14,3 12,5 13,9 89,0 1,5 104 - 0,0 0 1.013,9
04:21 14,3 12,5 13,9 89,0 1,5 105 - 0,0 0 1.013,9
04:20 14,3 12,5 13,9 89,0 1,4 105 - 0,0 0 1.013,9
04:19 14,3 12,5 13,9 89,0 1,3 105 - 0,0 0 1.013,9
04:18 14,3 12,5 13,9 89,0 1,2 105 - 0,0 0 1.013,9
04:17 14,3 12,5 13,9 89,0 1,1 105 - 0,0 0 1.013,9
04:16 14,3 12,5 13,9 89,0 1,1 105 - 0,0 0 1.014,0
04:15 14,3 12,5 13,9 89,0 1,1 105 - 0,0 0 1.014,0
04:14 14,3 12,5 13,9 89,0 1,2 106 - 0,0 0 1.013,9
04:13 14,4 12,6 14,0 89,0 1,4 105 - 0,0 0 1.013,9
04:12 14,3 12,5 13,9 89,0 1,5 105 - 0,0 0 1.013,9
04:11 14,4 12,6 14,0 89,0 1,6 105 - 0,0 0 1.013,9
04:10 14,4 12,6 14,0 89,0 1,7 105 - 0,0 0 1.013,9
04:09 14,4 12,6 14,0 89,0 1,8 105 - 0,0 0 1.013,9
04:08 14,4 12,6 14,0 89,0 1,8 105 - 0,0 0 1.013,9
04:07 14,4 12,6 14,0 89,0 1,8 104 - 0,0 0 1.013,9
04:06 14,4 - - - - - - - - -
04:05 14,4 12,6 14,0 89,0 1,6 104 - 0,0 0 1.014,0
04:04 14,4 12,6 14,0 89,0 1,5 104 - 0,0 0 1.014,0
04:03 14,4 12,6 14,0 89,0 1,4 104 - 0,0 0 1.014,0
04:02 14,4 12,6 14,0 89,0 1,3 103 - 0,0 0 1.014,0
04:01 14,4 12,6 14,0 89,0 1,3 103 - 0,0 0 1.014,0
04:00 14,4 12,6 14,0 89,0 1,3 103 - 0,0 0 1.014,0
 
03:59 14,4 12,6 14,0 89,0 1,2 103 - 0,0 0 1.014,0
03:58 14,4 12,6 14,0 89,0 1,2 103 - 0,0 0 1.014,0
03:57 14,4 12,6 14,0 89,0 1,3 104 - 0,0 0 1.014,0
03:56 14,4 12,6 14,0 89,0 1,3 104 - 0,0 0 1.014,1
03:55 14,5 12,7 14,1 89,0 1,3 103 - 0,0 0 1.014,1
03:54 14,4 12,6 14,0 89,0 1,3 103 - 0,0 0 1.014,1
03:53 14,5 12,7 14,1 89,0 1,3 103 - 0,0 0 1.014,1
03:52 14,5 12,7 14,1 88,8 1,4 102 - 0,0 0 1.014,1
03:51 14,5 12,5 14,0 88,0 1,4 102 - 0,0 0 1.014,1
03:50 14,5 12,5 14,0 88,0 1,4 102 - 0,0 0 1.014,1
03:49 14,5 12,5 14,0 88,0 1,4 101 - 0,0 0 1.014,1
03:48 14,5 12,5 14,0 88,0 1,4 101 - 0,0 0 1.014,1
03:47 14,5 12,5 14,0 88,0 1,5 100 - 0,0 0 1.014,1
03:46 14,5 12,5 14,0 88,0 1,4 100 - 0,0 0 1.014,1
03:45 14,5 12,5 14,0 88,0 1,4 99 - 0,0 0 1.014,1
03:44 14,5 12,5 14,0 88,0 1,4 99 - 0,0 0 1.014,1
03:43 14,6 12,6 14,1 88,0 1,4 98 - 0,0 0 1.014,1
03:42 14,6 12,6 14,1 88,0 1,3 97 - 0,0 0 1.014,1
03:41 14,6 12,6 14,1 88,0 1,3 96 - 0,0 0 1.014,1
03:40 14,6 12,6 14,1 88,0 1,3 96 - 0,0 0 1.014,2
03:39 14,6 12,6 14,1 88,0 1,3 95 - 0,0 0 1.014,2
03:38 14,6 12,6 14,1 88,0 1,4 94 - 0,0 0 1.014,2
03:37 14,6 12,6 14,1 88,0 1,4 94 - 0,0 0 1.014,2
03:36 14,6 12,6 14,1 88,0 1,4 93 - 0,0 0 1.014,2
03:35 14,6 12,6 14,1 88,0 1,5 93 - 0,0 0 1.014,2
03:34 14,6 12,6 14,1 88,0 1,5 93 - 0,0 0 1.014,2
03:33 14,6 12,6 14,1 88,0 1,5 92 - 0,0 0 1.014,2
03:32 14,6 12,6 14,1 88,0 1,4 92 - 0,0 0 1.014,2
03:31 14,6 12,6 14,1 88,0 1,4 92 - 0,0 0 1.014,2
03:30 14,7 12,7 14,2 88,0 1,4 92 - 0,0 0 1.014,2
03:29 14,7 12,7 14,2 88,0 1,4 92 - 0,0 0 1.014,2
03:28 14,7 12,7 14,2 88,0 1,4 92 - 0,0 0 1.014,2
03:27 14,7 12,7 14,2 88,0 1,3 92 - 0,0 0 1.014,2
03:26 14,7 12,7 14,2 88,0 1,3 92 - 0,0 0 1.014,2
03:25 14,7 12,7 14,2 88,0 1,3 92 - 0,0 0 1.014,2
03:24 14,7 12,7 14,2 88,0 1,2 92 - 0,0 0 1.014,1
03:23 14,7 12,7 14,2 88,0 1,2 93 - 0,0 0 1.014,2
03:22 14,7 12,7 14,2 88,0 1,3 94 - 0,0 0 1.014,1
03:21 14,7 12,7 14,2 88,0 1,3 94 - 0,0 0 1.014,2
03:20 14,7 12,7 14,2 88,0 1,3 95 - 0,0 0 1.014,2
03:19 14,7 12,7 14,2 88,0 1,3 96 - 0,0 0 1.014,1
03:18 14,7 12,7 14,2 88,0 1,3 97 - 0,0 0 1.014,2
03:17 14,7 12,7 14,2 88,0 1,3 98 - 0,0 0 1.014,2
03:16 14,8 12,8 14,3 87,7 1,3 99 - 0,0 0 1.014,1
03:15 14,8 12,7 14,2 87,0 1,2 100 - 0,0 0 1.014,2
03:14 14,8 12,7 14,2 87,0 1,2 101 - 0,0 0 1.014,2
03:13 14,8 12,7 14,2 87,0 1,2 102 - 0,0 0 1.014,1
03:12 14,8 12,7 14,2 87,0 1,2 102 - 0,0 0 1.014,1
03:11 14,8 12,7 14,2 87,0 1,2 103 - 0,0 0 1.014,1
03:10 14,8 12,7 14,2 87,0 1,2 103 - 0,0 0 1.014,1
03:09 14,8 12,7 14,2 87,0 1,2 104 - 0,0 0 1.014,1
03:08 14,8 12,7 14,2 87,0 1,1 104 - 0,0 0 1.014,1
03:07 14,8 12,7 14,2 87,0 1,1 104 - 0,0 0 1.014,1
03:06 14,8 12,7 14,2 87,0 1,1 104 - 0,0 0 1.014,1
03:05 14,8 12,7 14,2 87,0 1,2 104 - 0,0 0 1.014,1
03:04 14,8 12,7 14,2 87,0 1,2 104 - 0,0 0 1.014,1
03:03 14,8 12,7 14,2 87,0 1,3 103 - 0,0 0 1.014,1
03:02 14,8 12,7 14,2 87,0 1,5 103 - 0,0 0 1.014,1
03:01 14,8 12,7 14,2 87,0 1,6 103 - 0,0 0 1.014,1
03:00 14,8 12,7 14,2 87,0 1,6 102 - 0,0 0 1.014,1
 
02:59 14,8 12,7 14,2 87,0 1,7 102 - 0,0 0 1.014,1
02:58 14,8 12,7 14,2 87,0 1,7 101 - 0,0 0 1.014,1
02:57 14,8 12,7 14,2 87,0 1,7 101 - 0,0 0 1.014,1
02:56 14,8 12,7 14,2 87,0 1,7 101 - 0,0 0 1.014,1
02:55 14,8 12,7 14,2 87,0 1,6 100 - 0,0 0 1.014,1
02:54 14,8 12,7 14,2 87,0 1,6 100 - 0,0 0 1.014,1
02:53 14,8 12,7 14,2 87,0 1,5 100 - 0,0 0 1.014,1
02:52 14,8 12,7 14,2 87,0 1,5 101 - 0,0 0 1.014,1
02:51 14,8 12,7 14,2 87,0 1,5 101 - 0,0 0 1.014,1
02:50 14,8 12,7 14,2 87,0 1,5 101 - 0,0 0 1.014,1
02:49 14,8 12,7 14,2 87,0 1,6 101 - 0,0 0 1.014,1
02:48 14,8 12,7 14,2 87,0 1,6 101 - 0,0 0 1.014,1
02:47 14,8 12,7 14,2 87,0 1,6 101 - 0,0 0 1.014,1
02:46 14,8 12,7 14,2 87,0 1,5 101 - 0,0 0 1.014,1
02:45 14,7 12,6 14,1 87,0 1,4 101 - 0,0 0 1.014,1
02:44 14,7 12,6 14,1 87,0 1,3 102 - 0,0 0 1.014,1
02:43 14,7 12,6 14,1 87,0 1,3 102 - 0,0 0 1.014,1
02:42 14,7 12,6 14,1 87,0 1,2 102 - 0,0 0 1.014,1
02:41 14,7 12,6 14,1 87,0 1,3 102 - 0,0 0 1.014,1
02:40 14,7 12,6 14,1 87,0 1,3 103 - 0,0 0 1.014,1
02:39 14,7 12,6 14,1 87,0 1,3 103 - 0,0 0 1.014,1
02:38 14,7 12,6 14,1 87,0 1,3 103 - 0,0 0 1.014,1
02:37 14,7 12,6 14,1 87,0 1,2 103 - 0,0 0 1.014,1
02:36 14,7 12,6 14,1 87,0 1,2 104 - 0,0 0 1.014,1
02:35 14,7 12,6 14,1 87,0 1,1 103 - 0,0 0 1.014,1
02:34 14,7 12,6 14,1 87,0 1,1 103 - 0,0 0 1.014,1
02:33 14,7 12,6 14,1 87,0 1,1 103 - 0,0 0 1.014,1
02:32 14,7 12,6 14,1 87,0 1,1 103 - 0,0 0 1.014,1
02:31 14,7 12,6 14,1 87,0 1,2 102 - 0,0 0 1.014,1
02:30 14,7 12,6 14,1 87,0 1,3 102 - 0,0 0 1.014,1
02:29 14,7 12,6 14,1 87,0 1,3 102 - 0,0 0 1.014,1
02:28 14,7 12,6 14,1 87,0 1,4 101 - 0,0 0 1.014,1
02:27 14,7 12,6 14,1 87,0 1,4 101 - 0,0 0 1.014,1
02:26 14,7 12,6 14,1 87,0 1,4 101 - 0,0 0 1.014,1
02:25 14,7 12,6 14,1 87,0 1,4 100 - 0,0 0 1.014,1
02:24 14,7 12,6 14,1 87,0 1,4 100 - 0,0 0 1.014,1
02:23 14,7 12,6 14,1 87,0 1,4 100 - 0,0 0 1.014,1
02:22 14,7 12,6 14,1 87,0 1,3 100 - 0,0 0 1.014,1
02:21 14,7 12,6 14,1 87,0 1,3 100 - 0,0 0 1.014,1
02:20 14,7 12,6 14,1 87,0 1,3 99 - 0,0 0 1.014,1
02:19 14,7 12,6 14,1 87,0 1,3 99 - 0,0 0 1.014,1
02:18 14,7 12,6 14,1 87,0 1,3 99 - 0,0 0 1.014,1
02:17 14,7 12,6 14,1 87,0 1,2 98 - 0,0 0 1.014,1
02:16 14,7 12,6 14,1 87,0 1,1 97 - 0,0 0 1.014,1
02:15 14,7 12,6 14,1 87,0 1,0 96 - 0,0 0 1.014,1
02:14 14,7 12,6 14,1 87,0 1,0 96 - 0,0 0 1.014,1
02:13 14,7 12,6 14,1 87,0 0,9 95 - 0,0 0 1.014,1
02:12 14,7 12,6 14,1 87,0 0,9 94 - 0,0 0 1.014,1
02:11 14,7 12,6 14,1 87,0 1,0 93 - 0,0 0 1.014,1
02:10 14,7 12,5 14,0 86,5 1,2 92 - 0,0 0 1.014,1
02:09 14,7 12,4 14,0 86,0 1,4 92 - 0,0 0 1.014,0
02:08 14,7 12,4 14,0 86,0 1,6 91 - 0,0 0 1.014,1
02:07 14,7 12,4 14,0 86,0 1,7 91 - 0,0 0 1.014,0
02:06 14,7 12,4 14,0 86,0 1,9 90 - 0,0 0 1.014,0
02:05 14,7 12,4 14,0 86,0 1,9 90 - 0,0 0 1.014,0
02:04 14,7 12,4 14,0 86,0 1,9 90 - 0,0 0 1.014,0
02:03 14,7 12,4 14,0 86,0 1,9 90 - 0,0 0 1.014,0
02:02 14,7 12,4 14,0 86,0 1,9 90 - 0,0 0 1.014,1
02:01 14,7 12,4 14,0 86,0 1,9 90 - 0,0 0 1.014,1
02:00 14,7 12,4 14,0 86,0 1,9 91 - 0,0 0 1.014,0
 
01:59 14,7 12,4 14,0 86,0 1,9 92 - 0,0 0 1.014,0
01:58 14,7 12,4 14,0 86,0 1,9 92 - 0,0 0 1.014,0
01:57 14,7 12,4 14,0 86,0 1,8 93 - 0,0 0 1.014,1
01:56 14,7 12,4 14,0 86,0 1,8 94 - 0,0 0 1.014,1
01:55 14,7 12,4 14,0 86,0 1,8 95 - 0,0 0 1.014,1
01:54 14,7 12,4 14,0 86,0 1,7 96 - 0,0 0 1.014,0
01:53 14,7 12,4 14,0 86,0 1,6 97 - 0,0 0 1.014,1
01:52 14,7 12,4 14,0 86,0 1,5 98 - 0,0 0 1.014,1
01:50 14,7 12,4 14,0 86,0 1,5 99 - 0,0 0 1.014,1
01:49 14,7 12,4 14,0 86,0 1,5 100 - 0,0 0 1.014,1
01:48 14,7 12,4 14,0 86,0 1,5 100 - 0,0 0 1.014,1
01:47 14,7 12,4 14,0 86,0 1,6 101 - 0,0 0 1.014,1
01:46 14,7 12,4 14,0 86,0 1,6 101 - 0,0 0 1.014,1
01:45 14,7 12,4 14,0 86,0 1,6 102 - 0,0 0 1.014,1
01:44 14,7 12,4 14,0 86,0 1,6 102 - 0,0 0 1.014,1
01:43 14,7 12,2 13,9 85,0 1,5 102 - 0,0 0 1.014,1
01:42 14,7 12,2 13,9 85,0 1,5 103 - 0,0 0 1.014,1
01:41 14,7 12,2 13,9 85,0 1,4 103 - 0,0 0 1.014,1
01:40 14,7 12,2 13,9 85,0 1,4 103 - 0,0 0 1.014,1
01:39 14,7 12,2 13,9 85,0 1,4 103 - 0,0 0 1.014,1
01:38 14,8 12,3 14,0 85,0 1,4 103 - 0,0 0 1.014,1
01:37 14,8 12,3 14,0 85,0 1,4 103 - 0,0 0 1.014,1
01:36 14,8 12,3 14,0 85,0 1,3 103 - 0,0 0 1.014,1
01:35 14,8 12,3 14,0 85,0 1,3 103 - 0,0 0 1.014,0
01:34 14,8 12,3 14,0 85,0 1,3 103 - 0,0 0 1.014,0
01:33 14,8 12,3 14,0 85,0 1,4 104 - 0,0 0 1.014,1
01:32 14,8 12,3 14,0 85,0 1,4 104 - 0,0 0 1.014,1
01:31 14,8 12,3 14,0 85,0 1,4 104 - 0,0 0 1.014,1
01:30 14,8 12,3 14,0 85,0 1,4 104 - 0,0 0 1.014,1
01:29 14,8 12,3 14,0 85,0 1,4 104 - 0,0 0 1.014,0
01:28 14,8 12,3 14,0 85,0 1,4 104 - 0,0 0 1.014,0
01:27 14,9 12,4 14,1 85,0 1,4 104 - 0,0 0 1.014,1
01:26 14,9 12,4 14,1 85,0 1,4 104 - 0,0 0 1.014,0
01:25 14,9 12,4 14,1 85,0 1,4 103 - 0,0 0 1.014,0
01:24 14,9 12,3 14,0 84,6 1,5 103 - 0,0 0 1.014,1
01:23 14,9 12,2 13,9 84,0 1,5 103 - 0,0 0 1.014,0
01:22 14,9 12,2 13,9 84,0 1,6 102 - 0,0 0 1.014,1
01:21 14,9 12,2 13,9 84,0 1,6 102 - 0,0 0 1.014,0
01:20 14,9 12,2 13,9 84,0 1,7 101 - 0,0 0 1.014,1
01:19 14,9 12,2 13,9 84,0 1,7 101 - 0,0 0 1.014,0
01:18 15,0 12,3 14,0 84,0 1,8 100 - 0,0 0 1.014,0
01:17 15,0 12,3 14,0 84,0 1,9 99 - 0,0 0 1.014,0
01:16 15,0 12,3 14,0 84,0 1,9 98 - 0,0 0 1.014,1
01:15 15,0 12,3 14,0 84,0 2,0 98 - 0,0 0 1.014,1
01:14 15,0 12,3 14,0 84,0 2,0 97 - 0,0 0 1.014,1
01:13 15,0 12,3 14,0 84,0 1,9 96 - 0,0 0 1.014,1
01:12 15,1 12,4 14,1 84,0 1,9 95 - 0,0 0 1.014,1
01:11 15,1 12,4 14,1 84,0 1,9 95 - 0,0 0 1.014,1
01:10 15,1 12,4 14,1 84,0 1,9 94 - 0,0 0 1.014,1
01:09 15,1 12,4 14,1 84,0 2,0 93 - 0,0 0 1.014,1
01:08 15,1 12,4 14,1 84,0 2,0 93 - 0,0 0 1.014,1
01:07 15,1 12,4 14,1 84,0 2,1 92 - 0,0 0 1.014,1
01:06 15,1 12,4 14,1 84,0 2,1 91 - 0,0 0 1.014,1
01:05 15,1 12,4 14,1 84,0 2,1 91 - 0,0 0 1.014,1
01:04 15,1 12,4 14,1 84,0 2,1 90 - 0,0 0 1.014,1
01:03 15,1 12,4 14,1 84,0 2,2 89 - 0,0 0 1.014,1
01:02 15,1 12,4 14,1 84,0 2,3 88 - 0,0 0 1.014,1
01:01 15,1 12,4 14,1 84,0 2,3 87 - 0,0 0 1.014,1
01:00 15,1 12,4 14,1 84,0 2,4 87 - 0,0 0 1.014,2
 
00:59 15,1 12,4 14,1 84,0 2,5 86 - 0,0 0 1.014,1
00:58 15,1 12,4 14,1 84,0 2,5 86 - 0,0 0 1.014,1
00:57 15,1 12,4 14,1 84,0 2,5 85 - 0,0 0 1.014,2
00:56 15,1 12,4 14,1 84,0 2,5 85 - 0,0 0 1.014,2
00:55 15,2 12,5 14,2 84,0 2,5 85 - 0,0 0 1.014,2
00:54 15,2 12,5 14,2 84,0 2,4 85 - 0,0 0 1.014,2
00:53 15,2 12,4 14,2 83,4 2,4 84 - 0,0 0 1.014,2
00:52 15,2 12,3 14,1 83,0 2,3 84 - 0,0 0 1.014,2
00:51 15,2 12,3 14,1 83,0 2,2 84 - 0,0 0 1.014,2
00:50 15,2 12,3 14,1 83,0 2,1 84 - 0,0 0 1.014,2
00:49 15,2 12,3 14,1 83,0 2,1 84 - 0,0 0 1.014,2
00:48 15,2 12,3 14,1 83,0 2,1 84 - 0,0 0 1.014,1
00:47 15,2 12,3 14,1 83,0 2,1 84 - 0,0 0 1.014,1
00:46 15,2 12,3 14,1 83,0 2,1 85 - 0,0 0 1.014,1
00:45 15,2 12,3 14,1 83,0 2,2 85 - 0,0 0 1.014,1
00:44 15,3 12,4 14,2 83,0 2,3 86 - 0,0 0 1.014,1
00:43 15,3 12,4 14,2 83,0 2,4 87 - 0,0 0 1.014,1
00:42 15,3 12,4 14,2 83,0 2,4 87 - 0,0 0 1.014,1
00:41 15,3 12,4 14,2 83,0 2,5 88 - 0,0 0 1.014,1
00:40 15,3 12,4 14,2 83,0 2,5 89 - 0,0 0 1.014,1
00:39 15,3 12,4 14,2 83,0 2,5 89 - 0,0 0 1.014,1
00:38 15,3 12,4 14,2 83,0 2,4 90 - 0,0 0 1.014,1
00:37 15,3 12,4 14,2 83,0 2,4 90 - 0,0 0 1.014,1
00:36 15,3 12,4 14,2 83,0 2,4 90 - 0,0 0 1.014,1
00:35 15,3 12,4 14,2 83,0 2,3 91 - 0,0 0 1.014,1
00:34 15,3 12,4 14,2 83,0 2,3 91 - 0,0 0 1.014,1
00:33 15,3 12,4 14,2 83,0 2,3 91 - 0,0 0 1.014,1
00:32 15,3 12,4 14,2 83,0 2,3 92 - 0,0 0 1.014,1
00:31 15,3 12,4 14,2 83,0 2,2 92 - 0,0 0 1.014,1
00:30 15,3 12,4 14,2 83,0 2,2 92 - 0,0 0 1.014,1
00:29 15,4 12,5 14,3 83,0 2,1 92 - 0,0 0 1.014,2
00:28 15,4 12,5 14,3 83,0 2,0 92 - 0,0 0 1.014,2
00:27 15,4 12,5 14,3 83,0 2,0 92 - 0,0 0 1.014,1
00:26 15,4 12,5 14,3 83,0 1,9 92 - 0,0 0 1.014,2
00:25 15,4 12,5 14,3 83,0 1,8 92 - 0,0 0 1.014,2
00:24 15,4 12,5 14,3 83,0 1,7 92 - 0,0 0 1.014,2
00:23 15,5 12,6 14,4 83,0 1,7 92 - 0,0 0 1.014,1
00:22 15,5 12,6 14,4 83,0 1,6 91 - 0,0 0 1.014,2
00:21 15,5 12,6 14,4 82,8 1,6 91 - 0,0 0 1.014,2
00:20 15,5 12,4 14,3 82,0 1,7 90 - 0,0 0 1.014,2
00:19 15,5 12,4 14,3 82,0 1,9 90 - 0,0 0 1.014,2
00:18 15,5 12,4 14,3 82,0 2,0 89 - 0,0 0 1.014,2
00:17 15,6 12,5 14,4 82,0 2,0 88 - 0,0 0 1.014,2
00:16 15,6 12,5 14,4 82,0 2,1 88 - 0,0 0 1.014,2
00:15 15,6 12,5 14,4 82,0 2,1 87 - 0,0 0 1.014,2
00:14 15,6 12,5 14,4 82,0 2,0 87 - 0,0 0 1.014,2
00:13 15,6 12,5 14,4 82,0 2,0 86 - 0,0 0 1.014,2
00:12 15,6 12,5 14,4 82,0 2,0 86 - 0,0 0 1.014,2
00:11 15,6 12,5 14,4 82,0 2,0 86 - 0,0 0 1.014,2
00:10 15,7 12,6 14,5 82,0 2,0 85 - 0,0 0 1.014,2
00:09 15,7 12,6 14,5 82,0 1,9 85 - 0,0 0 1.014,2
00:08 15,7 12,6 14,5 82,0 1,9 85 - 0,0 0 1.014,2
00:07 15,7 12,6 14,5 82,0 1,9 85 - 0,0 0 1.014,2
00:06 15,7 12,6 14,5 82,0 1,9 85 - 0,0 0 1.014,2
00:05 15,7 12,6 14,5 82,0 1,9 85 - 0,0 0 1.014,2
00:04 15,7 12,6 14,5 82,0 1,9 85 - 0,0 0 1.014,2
00:03 15,7 12,6 14,5 82,0 2,0 85 - 0,0 0 1.014,2
00:02 15,7 12,6 14,5 82,0 2,0 85 - 0,0 0 1.014,2
00:01 15,7 12,6 14,5 82,0 1,9 85 - 0,0 0 1.014,2
00:00 15,8 12,7 14,6 82,0 1,9 86 - 0,0 0 1.014,2
 
23:59 15,8 12,7 14,6 82,0 1,9 86 - 0,0 0 1.014,2
23:58 15,8 12,7 14,6 82,0 1,9 86 - 0,0 0 1.014,2
23:57 15,8 12,7 14,6 82,0 2,0 87 - 0,0 0 1.014,2
23:56 15,8 12,7 14,6 82,0 2,0 87 - 0,0 0 1.014,2
23:55 15,8 12,7 14,6 82,0 2,0 87 - 0,0 0 1.014,2
23:54 15,8 12,7 14,6 82,0 2,0 86 - 0,0 0 1.014,1
23:53 15,8 12,7 14,6 82,0 1,9 86 - 0,0 0 1.014,2
23:52 15,9 12,8 14,7 82,0 1,9 86 - 0,0 0 1.014,1
23:51 15,9 12,8 14,7 81,7 1,8 86 - 0,0 0 1.014,2
23:50 15,9 12,6 14,6 81,0 1,8 85 - 0,0 0 1.014,1
23:49 15,9 12,6 14,6 81,0 1,8 85 - 0,0 0 1.014,2
23:48 15,9 12,6 14,6 81,0 1,7 85 - 0,0 0 1.014,1
23:47 15,9 12,6 14,6 81,0 1,8 85 - 0,0 0 1.014,1
23:46 15,9 12,6 14,6 81,0 1,8 85 - 0,0 0 1.014,1
23:45 15,9 12,6 14,6 81,0 1,7 85 - 0,0 0 1.014,1
23:44 16,0 12,7 14,7 81,0 1,8 86 - 0,0 0 1.014,1
23:43 16,0 12,7 14,7 81,0 1,8 86 - 0,0 0 1.014,1
23:42 16,0 12,7 14,7 81,0 2,0 86 - 0,0 0 1.014,1
23:41 16,0 12,7 14,7 81,0 2,0 86 - 0,0 0 1.014,1
23:40 16,0 12,7 14,7 81,0 2,1 86 - 0,0 0 1.014,1
23:39 16,0 12,7 14,7 81,0 2,1 86 - 0,0 0 1.014,1
23:38 16,1 12,8 14,8 81,0 2,2 87 - 0,0 0 1.014,1
23:37 16,1 12,8 14,8 81,0 2,3 87 - 0,0 0 1.014,1
23:36 16,1 12,8 14,8 81,0 2,3 87 - 0,0 0 1.014,1
23:35 16,1 12,8 14,8 81,0 2,3 87 - 0,0 0 1.014,1
23:34 16,1 12,8 14,8 81,0 2,3 88 - 0,0 0 1.014,1
23:33 16,1 12,8 14,8 81,0 2,4 88 - 0,0 0 1.014,1
23:32 16,1 12,8 14,8 81,0 2,4 88 - 0,0 0 1.014,1
23:31 16,1 12,8 14,8 81,0 2,3 89 - 0,0 0 1.014,1
23:30 16,2 12,9 14,9 81,0 2,3 89 - 0,0 0 1.014,1
23:29 16,2 12,9 14,9 81,0 2,2 90 - 0,0 0 1.014,1
23:28 16,2 12,9 14,9 81,0 2,2 90 - 0,0 0 1.014,1
23:27 16,2 12,9 14,9 81,0 2,2 91 - 0,0 0 1.014,1
23:26 16,2 12,9 14,9 81,0 2,2 91 - 0,0 0 1.014,1
23:25 16,2 12,9 14,9 81,0 2,2 91 - 0,0 0 1.014,1
23:24 16,2 12,9 14,9 81,0 2,3 91 - 0,0 0 1.014,1
23:23 16,2 12,9 14,9 81,0 2,4 91 - 0,0 0 1.014,1
23:22 16,3 13,0 15,0 81,0 2,3 91 - 0,0 0 1.014,0
23:21 16,3 13,0 15,0 81,0 2,3 91 - 0,0 0 1.014,0
23:20 16,3 13,0 15,0 81,0 2,3 91 - 0,0 0 1.014,1
23:19 16,3 13,0 15,0 81,0 2,2 91 - 0,0 0 1.014,0
23:18 16,3 13,0 15,0 81,0 2,2 92 - 0,0 0 1.014,0
23:17 16,3 13,0 15,0 81,0 2,2 92 - 0,0 0 1.014,0
23:16 16,3 13,0 15,0 81,0 2,2 91 - 0,0 0 1.014,0
23:15 16,3 13,0 15,0 81,0 2,2 91 - 0,0 0 1.014,1
23:14 16,4 13,1 15,1 81,0 2,2 91 - 0,0 0 1.014,1
23:13 16,4 13,1 15,1 81,0 2,2 91 - 0,0 0 1.014,1
23:12 16,4 13,1 15,1 81,0 2,3 90 - 0,0 0 1.014,1
23:11 16,4 13,1 15,1 81,0 2,3 90 - 0,0 0 1.014,1
23:10 16,4 13,1 15,1 81,0 2,3 89 - 0,0 0 1.014,1
23:09 16,4 13,1 15,1 81,0 2,3 89 - 0,0 0 1.014,1
23:08 16,5 13,1 15,1 80,4 2,4 89 - 0,0 0 1.014,1
23:07 16,5 13,0 15,1 80,0 2,4 88 - 0,0 0 1.014,1
23:06 16,5 13,0 15,1 80,0 2,3 88 - 0,0 0 1.014,0
23:05 16,6 13,1 15,2 80,0 2,2 88 - 0,0 0 1.014,1
23:04 16,6 13,1 15,2 80,0 2,1 88 - 0,0 0 1.014,0
23:03 16,6 13,1 15,2 80,0 2,0 88 - 0,0 0 1.014,1
23:02 16,6 13,1 15,2 80,0 1,8 87 - 0,0 0 1.014,1
23:01 16,6 13,1 15,2 80,0 1,7 87 - 0,0 0 1.014,1
23:00 16,6 13,1 15,2 80,0 1,6 86 - 0,0 0 1.014,0
 
22:59 16,6 13,1 15,2 80,0 1,5 86 - 0,0 0 1.014,1
22:58 16,6 13,1 15,2 80,0 1,5 85 - 0,0 0 1.014,1
22:57 16,7 13,2 15,3 80,0 1,4 84 - 0,0 0 1.014,0
22:56 16,7 13,2 15,3 80,0 1,3 83 - 0,0 0 1.014,0
22:55 16,7 13,2 15,3 80,0 1,4 82 - 0,0 0 1.014,0
22:54 16,7 13,2 15,3 80,0 1,5 82 - 0,0 0 1.014,0
22:53 16,7 13,2 15,3 80,0 1,6 81 - 0,0 0 1.014,0
22:52 16,7 13,2 15,3 80,0 1,7 80 - 0,0 0 1.014,0
22:51 16,7 13,2 15,3 80,0 1,9 80 - 0,0 0 1.014,0
22:50 16,7 13,2 15,3 80,0 2,0 79 - 0,0 0 1.014,0
22:49 16,7 13,2 15,3 80,0 2,0 79 - 0,0 0 1.013,9
22:48 16,8 13,3 15,4 80,0 1,9 78 - 0,0 0 1.014,0
22:47 16,8 13,3 15,4 80,0 1,9 78 - 0,0 0 1.014,0
22:46 16,8 13,3 15,4 80,0 1,8 78 - 0,0 0 1.014,0
22:45 16,8 13,3 15,4 80,0 1,7 78 - 0,0 0 1.013,9
22:44 16,8 13,3 15,4 80,0 1,7 77 - 0,0 0 1.013,9
22:43 16,8 13,3 15,4 80,0 1,6 77 - 0,0 0 1.013,9
22:42 16,8 13,3 15,4 80,0 1,6 77 - 0,0 0 1.013,9
22:41 16,8 13,3 15,3 79,8 1,5 77 - 0,0 0 1.013,9
22:40 16,9 13,2 15,3 79,0 1,5 77 - 0,0 0 1.013,9
22:39 16,9 13,2 15,3 79,0 1,5 78 - 0,0 0 1.013,9
22:38 16,9 13,2 15,3 79,0 1,5 78 - 0,0 0 1.014,0
22:37 16,9 13,2 15,3 79,0 1,5 78 - 0,0 0 1.014,0
22:36 16,9 13,2 15,3 79,0 1,5 79 - 0,0 0 1.014,0
22:35 16,9 13,2 15,3 79,0 1,5 79 - 0,0 0 1.014,0
22:34 16,9 13,2 15,3 79,0 1,4 79 - 0,0 0 1.014,0
22:33 16,9 13,2 15,3 79,0 1,4 79 - 0,0 0 1.014,0
22:32 16,9 13,2 15,3 79,0 1,3 80 - 0,0 0 1.014,0
22:31 17,0 13,3 15,4 79,0 1,4 80 - 0,0 0 1.014,0
22:30 17,0 13,3 15,4 79,0 1,5 80 - 0,0 0 1.014,0
22:29 17,0 13,3 15,4 79,0 1,7 80 - 0,0 0 1.014,0
22:28 17,0 13,3 15,4 79,0 1,8 81 - 0,0 0 1.014,0
22:27 17,0 13,3 15,4 79,0 1,8 81 - 0,0 0 1.014,0
22:26 17,1 13,4 15,5 79,0 2,2 80 - 0,0 0 1.014,0
22:25 17,1 13,4 15,5 79,0 1,7 87 - 0,0 0 1.014,0
22:24 17,1 13,4 15,5 79,0 1,2 80 - 0,0 0 1.014,0
22:23 17,1 13,4 15,5 79,0 1,9 52 - 0,0 0 1.014,0
22:22 17,1 13,4 15,5 79,0 2,1 95 - 0,0 0 1.014,0
22:21 17,1 13,4 15,5 79,0 1,0 109 - 0,0 0 1.014,0
22:20 17,1 13,4 15,5 79,0 1,6 90 - 0,0 0 1.014,0
22:19 17,1 13,4 15,5 78,9 1,2 104 - 0,0 0 1.014,0
22:18 17,1 13,2 15,4 78,0 1,6 100 - 0,0 0 1.014,0
22:17 17,1 13,2 15,4 78,0 1,9 78 - 0,0 0 1.014,0
22:16 17,1 13,2 15,4 78,0 1,3 76 - 0,0 0 1.014,0
22:15 17,2 13,3 15,5 78,0 2,1 82 - 0,0 0 1.014,0
22:14 17,2 13,3 15,5 78,0 2,3 86 - 0,0 0 1.014,0
22:13 17,2 13,3 15,5 78,0 2,3 71 - 0,0 0 1.014,0
22:12 17,2 13,3 15,5 78,0 2,5 63 - 0,0 0 1.014,0